Wetterdaten: Freitag, 22.05.2020
Datum Zeit Temp. Aussen Temp. o. S. Temp +5cm Feuchte Auss Luftdruck Regen Sonnenschein Regendauer Solar Windben Empfang
22.05.2020 00:00 17,8 C 15,6 C 14,4 C 76 % 1019,3 hPa 0,0 l/m 0 min 0 min 0 W/m 0,0 km/h (0 Bft) 100,00 %
22.05.2020 00:02 17,7 C 15,6 C 14,4 C 76 % 1019,4 hPa 0,0 l/m 0 min 0 min 0 W/m 0,0 km/h (0 Bft) 100,00 %
22.05.2020 00:04 17,7 C 15,6 C 14,4 C 76 % 1019,3 hPa 0,0 l/m 0 min 0 min 0 W/m 0,0 km/h (0 Bft) 100,00 %
22.05.2020 00:08 17,7 C 16,1 C 14,4 C 76 % 1019,3 hPa 0,0 l/m 0 min 0 min 0 W/m 0,0 km/h (0 Bft) 100,00 %
22.05.2020 00:10 17,6 C 16,1 C 14,4 C 76 % 1019,3 hPa 0,0 l/m 0 min 0 min 0 W/m 0,0 km/h (0 Bft) 100,00 %
22.05.2020 00:12 17,6 C 16,1 C 14,4 C 76 % 1019,3 hPa 0,0 l/m 0 min 0 min 0 W/m 0,0 km/h (0 Bft) 100,00 %
22.05.2020 00:14 17,6 C 16,1 C 14,4 C 77 % 1019,2 hPa 0,0 l/m 0 min 0 min 0 W/m 0,0 km/h (0 Bft) 100,00 %
22.05.2020 00:16 17,5 C 16,1 C 14,4 C 76 % 1019,2 hPa 0,0 l/m 0 min 0 min 0 W/m 0,0 km/h (0 Bft) 100,00 %
22.05.2020 00:18 17,5 C 15,6 C 14,4 C 76 % 1019,2 hPa 0,0 l/m 0 min 0 min 0 W/m 0,0 km/h (0 Bft) 100,00 %
22.05.2020 00:20 17,4 C 16,1 C 14,4 C 77 % 1019,2 hPa 0,0 l/m 0 min 0 min 0 W/m 0,0 km/h (0 Bft) 100,00 %
22.05.2020 00:22 17,4 C 16,1 C 14,4 C 77 % 1019,1 hPa 0,0 l/m 0 min 0 min 0 W/m 0,0 km/h (0 Bft) 100,00 %
22.05.2020 00:24 17,4 C 15,6 C 14,4 C 77 % 1019,1 hPa 0,0 l/m 0 min 0 min 0 W/m 0,0 km/h (0 Bft) 100,00 %
22.05.2020 00:26 17,4 C 15,6 C 14,4 C 77 % 1019,1 hPa 0,0 l/m 0 min 0 min 0 W/m 0,0 km/h (0 Bft) 100,00 %
22.05.2020 00:28 17,3 C 15,6 C 14,4 C 77 % 1019,2 hPa 0,0 l/m 0 min 0 min 0 W/m 0,0 km/h (0 Bft) 97,87 %
22.05.2020 00:30 17,3 C 15,6 C 14,4 C 77 % 1019,2 hPa 0,0 l/m 0 min 0 min 0 W/m 0,0 km/h (0 Bft) 100,00 %
22.05.2020 00:32 17,3 C 15,6 C 14,4 C 77 % 1019,2 hPa 0,0 l/m 0 min 0 min 0 W/m 0,0 km/h (0 Bft) 100,00 %
22.05.2020 00:34 17,3 C 15,6 C 14,4 C 77 % 1019,2 hPa 0,0 l/m 0 min 0 min 0 W/m 0,0 km/h (0 Bft) 100,00 %
22.05.2020 00:36 17,2 C 15,6 C 14,4 C 77 % 1019,1 hPa 0,0 l/m 0 min 0 min 0 W/m 0,0 km/h (0 Bft) 100,00 %
22.05.2020 00:38 17,2 C 15,6 C 14,4 C 77 % 1019,1 hPa 0,0 l/m 0 min 0 min 0 W/m 0,0 km/h (0 Bft) 100,00 %
22.05.2020 00:40 17,2 C 15,6 C 14,4 C 77 % 1019,1 hPa 0,0 l/m 0 min 0 min 0 W/m 0,0 km/h (0 Bft) 97,87 %
22.05.2020 00:42 17,2 C 15,6 C 14,4 C 77 % 1019,1 hPa 0,0 l/m 0 min 0 min 0 W/m 0,0 km/h (0 Bft) 100,00 %
22.05.2020 00:44 17,1 C 15,6 C 14,4 C 77 % 1019,1 hPa 0,0 l/m 0 min 0 min 0 W/m 0,0 km/h (0 Bft) 100,00 %
22.05.2020 00:46 17,1 C 15,0 C 13,9 C 77 % 1019,1 hPa 0,0 l/m 0 min 0 min 0 W/m 0,0 km/h (0 Bft) 97,87 %
22.05.2020 00:48 17,1 C 15,0 C 13,9 C 77 % 1019,1 hPa 0,0 l/m 0 min 0 min 0 W/m 0,0 km/h (0 Bft) 97,87 %
22.05.2020 00:50 17,1 C 15,0 C 13,9 C 77 % 1019,1 hPa 0,0 l/m 0 min 0 min 0 W/m 0,0 km/h (0 Bft) 100,00 %
22.05.2020 00:52 17,0 C 15,0 C 13,9 C 77 % 1019,1 hPa 0,0 l/m 0 min 0 min 0 W/m 0,0 km/h (0 Bft) 100,00 %
22.05.2020 00:54 17,0 C 15,0 C 13,9 C 77 % 1019,2 hPa 0,0 l/m 0 min 0 min 0 W/m 0,0 km/h (0 Bft) 97,87 %
22.05.2020 00:56 16,9 C 15,0 C 13,9 C 77 % 1019,1 hPa 0,0 l/m 0 min 0 min 0 W/m 0,0 km/h (0 Bft) 97,87 %
22.05.2020 00:58 16,9 C 15,0 C 13,9 C 77 % 1019,1 hPa 0,0 l/m 0 min 0 min 0 W/m 0,0 km/h (0 Bft) 95,74 %
22.05.2020 01:00 16,9 C 15,0 C 13,9 C 77 % 1019,1 hPa 0,0 l/m 0 min 0 min 0 W/m 0,0 km/h (0 Bft) 95,74 %
22.05.2020 01:02 16,9 C 15,0 C 13,9 C 78 % 1019,1 hPa 0,0 l/m 0 min 0 min 0 W/m 0,0 km/h (0 Bft) 97,83 %
22.05.2020 01:04 16,8 C 15,0 C 13,9 C 78 % 1019,0 hPa 0,0 l/m 0 min 0 min 0 W/m 0,0 km/h (0 Bft) 97,87 %
22.05.2020 01:06 16,8 C 15,0 C 13,9 C 78 % 1019,1 hPa 0,0 l/m 0 min 0 min 0 W/m 0,0 km/h (0 Bft) 97,87 %
22.05.2020 01:08 16,8 C 15,0 C 13,9 C 78 % 1019,1 hPa 0,0 l/m 0 min 0 min 0 W/m 0,0 km/h (0 Bft) 97,87 %
22.05.2020 01:10 16,8 C 15,0 C 13,9 C 78 % 1019,1 hPa 0,0 l/m 0 min 0 min 0 W/m 0,0 km/h (0 Bft) 97,87 %
22.05.2020 01:12 16,7 C 15,0 C 13,9 C 78 % 1019,1 hPa 0,0 l/m 0 min 0 min 0 W/m 0,0 km/h (0 Bft) 95,74 %
22.05.2020 01:14 16,7 C 15,0 C 13,9 C 78 % 1019,1 hPa 0,0 l/m 0 min 0 min 0 W/m 0,0 km/h (0 Bft) 95,65 %
22.05.2020 01:16 16,7 C 15,0 C 13,9 C 78 % 1019,1 hPa 0,0 l/m 0 min 0 min 0 W/m 0,0 km/h (0 Bft) 95,74 %
22.05.2020 01:18 16,7 C 15,0 C 13,9 C 78 % 1019,0 hPa 0,0 l/m 0 min 0 min 0 W/m 0,0 km/h (0 Bft) 93,62 %
22.05.2020 01:20 16,6 C 15,0 C 13,9 C 78 % 1019,1 hPa 0,0 l/m 0 min 0 min 0 W/m 0,0 km/h (0 Bft) 93,62 %
22.05.2020 01:22 16,6 C 15,0 C 13,9 C 78 % 1019,1 hPa 0,0 l/m 0 min 0 min 0 W/m 0,0 km/h (0 Bft) 89,36 %
22.05.2020 01:24 16,6 C 15,0 C 13,9 C 78 % 1019,1 hPa 0,0 l/m 0 min 0 min 0 W/m 0,0 km/h (0 Bft) 95,74 %
22.05.2020 01:26 16,6 C 15,0 C 13,9 C 79 % 1019,2 hPa 0,0 l/m 0 min 0 min 0 W/m 0,0 km/h (0 Bft) 93,48 %
22.05.2020 01:28 16,6 C 15,0 C 13,9 C 79 % 1019,1 hPa 0,0 l/m 0 min 0 min 0 W/m 0,0 km/h (0 Bft) 95,74 %
22.05.2020 01:30 16,5 C 14,4 C 13,9 C 79 % 1019,1 hPa 0,0 l/m 0 min 0 min 0 W/m 0,0 km/h (0 Bft) 93,62 %
22.05.2020 01:32 16,5 C 14,4 C 13,9 C 79 % 1019,1 hPa 0,0 l/m 0 min 0 min 0 W/m 0,0 km/h (0 Bft) 95,74 %
22.05.2020 01:34 16,4 C 14,4 C 13,9 C 79 % 1019,1 hPa 0,0 l/m 0 min 0 min 0 W/m 0,0 km/h (0 Bft) 97,87 %
22.05.2020 01:36 16,4 C 14,4 C 13,9 C 79 % 1019,1 hPa 0,0 l/m 0 min 0 min 0 W/m 0,0 km/h (0 Bft) 97,87 %
22.05.2020 01:38 16,4 C 14,4 C 13,9 C 79 % 1019,1 hPa 0,0 l/m 0 min 0 min 0 W/m 0,0 km/h (0 Bft) 95,65 %
22.05.2020 01:40 16,4 C 14,4 C 13,9 C 79 % 1019,0 hPa 0,0 l/m 0 min 0 min 0 W/m 0,0 km/h (0 Bft) 97,87 %
22.05.2020 01:42 16,3 C 14,4 C 13,9 C 79 % 1019,0 hPa 0,0 l/m 0 min 0 min 0 W/m 0,0 km/h (0 Bft) 97,87 %
22.05.2020 01:44 16,3 C 14,4 C 13,9 C 79 % 1019,0 hPa 0,0 l/m 0 min 0 min 0 W/m 0,0 km/h (0 Bft) 97,87 %
22.05.2020 01:46 16,3 C 14,4 C 13,9 C 79 % 1019,0 hPa 0,0 l/m 0 min 0 min 0 W/m 0,0 km/h (0 Bft) 97,87 %
22.05.2020 01:48 16,3 C 14,4 C 13,3 C 79 % 1019,0 hPa 0,0 l/m 0 min 0 min 0 W/m 0,0 km/h (0 Bft) 97,87 %
22.05.2020 01:50 16,2 C 14,4 C 13,3 C 79 % 1019,0 hPa 0,0 l/m 0 min 0 min 0 W/m 0,0 km/h (0 Bft) 97,83 %
22.05.2020 01:52 16,2 C 14,4 C 13,3 C 80 % 1019,0 hPa 0,0 l/m 0 min 0 min 0 W/m 0,0 km/h (0 Bft) 97,87 %
22.05.2020 01:54 16,2 C 14,4 C 13,3 C 80 % 1019,0 hPa 0,0 l/m 0 min 0 min 0 W/m 0,0 km/h (0 Bft) 97,87 %
22.05.2020 01:56 16,2 C 14,4 C 13,3 C 80 % 1018,9 hPa 0,0 l/m 0 min 0 min 0 W/m 0,0 km/h (0 Bft) 95,74 %
22.05.2020 01:58 16,2 C 14,4 C 13,3 C 80 % 1018,9 hPa 0,0 l/m 0 min 0 min 0 W/m 0,0 km/h (0 Bft) 97,87 %
22.05.2020 02:00 16,1 C 15,0 C 13,3 C 81 % 1018,9 hPa 0,0 l/m 0 min 0 min 0 W/m 0,0 km/h (0 Bft) 97,83 %
22.05.2020 02:02 16,1 C 15,0 C 13,3 C 81 % 1018,9 hPa 0,0 l/m 0 min 0 min 0 W/m 0,0 km/h (0 Bft) 97,87 %
22.05.2020 02:04 16,1 C 15,0 C 13,3 C 81 % 1018,9 hPa 0,0 l/m 0 min 0 min 0 W/m 0,0 km/h (0 Bft) 97,87 %
22.05.2020 02:06 16,1 C 15,6 C 13,3 C 81 % 1018,8 hPa 0,0 l/m 0 min 0 min 0 W/m 3,2 km/h (1 Bft) 97,87 %
22.05.2020 02:08 16,1 C 15,6 C 13,3 C 82 % 1018,8 hPa 0,0 l/m 0 min 0 min 0 W/m 3,2 km/h (1 Bft) 97,87 %
22.05.2020 02:10 16,1 C 16,1 C 13,9 C 82 % 1018,8 hPa 0,0 l/m 0 min 0 min 0 W/m 6,4 km/h (2 Bft) 97,87 %
22.05.2020 02:12 16,1 C 16,1 C 13,9 C 82 % 1018,8 hPa 0,0 l/m 0 min 0 min 0 W/m 3,2 km/h (1 Bft) 97,83 %
22.05.2020 02:14 16,1 C 16,1 C 14,4 C 82 % 1018,8 hPa 0,0 l/m 0 min 0 min 0 W/m 6,4 km/h (2 Bft) 97,87 %
22.05.2020 02:16 16,1 C 16,7 C 15,0 C 83 % 1018,8 hPa 0,0 l/m 0 min 0 min 0 W/m 6,4 km/h (2 Bft) 97,87 %
22.05.2020 02:18 16,1 C 16,7 C 15,0 C 83 % 1018,8 hPa 0,0 l/m 0 min 0 min 0 W/m 12,9 km/h (3 Bft) 97,87 %
22.05.2020 02:20 16,2 C 16,7 C 15,0 C 83 % 1018,7 hPa 0,0 l/m 0 min 0 min 0 W/m 6,4 km/h (2 Bft) 97,87 %
22.05.2020 02:22 16,2 C 16,7 C 15,0 C 83 % 1018,7 hPa 0,0 l/m 0 min 0 min 0 W/m 12,9 km/h (3 Bft) 97,87 %
22.05.2020 02:24 16,3 C 16,7 C 15,6 C 83 % 1018,6 hPa 0,0 l/m 0 min 0 min 0 W/m 6,4 km/h (2 Bft) 97,83 %
22.05.2020 02:26 16,4 C 16,7 C 15,6 C 83 % 1018,6 hPa 0,0 l/m 0 min 0 min 0 W/m 12,9 km/h (3 Bft) 95,74 %
22.05.2020 02:28 16,4 C 16,7 C 15,6 C 82 % 1018,6 hPa 0,0 l/m 0 min 0 min 0 W/m 6,4 km/h (2 Bft) 97,87 %
22.05.2020 02:30 16,5 C 16,7 C 15,6 C 82 % 1018,6 hPa 0,0 l/m 0 min 0 min 0 W/m 6,4 km/h (2 Bft) 97,87 %
22.05.2020 02:32 16,6 C 16,7 C 16,1 C 82 % 1018,6 hPa 0,0 l/m 0 min 0 min 0 W/m 6,4 km/h (2 Bft) 95,74 %
22.05.2020 02:34 16,6 C 16,7 C 16,1 C 82 % 1018,6 hPa 0,0 l/m 0 min 0 min 0 W/m 12,9 km/h (3 Bft) 97,87 %
22.05.2020 02:36 16,7 C 16,7 C 16,1 C 81 % 1018,6 hPa 0,0 l/m 0 min 0 min 0 W/m 6,4 km/h (2 Bft) 93,48 %
22.05.2020 02:38 16,8 C 16,7 C 16,1 C 81 % 1018,5 hPa 0,0 l/m 0 min 0 min 0 W/m 6,4 km/h (2 Bft) 97,87 %
22.05.2020 02:40 16,8 C 16,7 C 16,1 C 81 % 1018,6 hPa 0,0 l/m 0 min 0 min 0 W/m 6,4 km/h (2 Bft) 97,87 %
22.05.2020 02:42 16,9 C 16,7 C 16,1 C 80 % 1018,6 hPa 0,0 l/m 0 min 0 min 0 W/m 6,4 km/h (2 Bft) 97,87 %
22.05.2020 02:44 16,9 C 16,7 C 16,1 C 80 % 1018,5 hPa 0,0 l/m 0 min 0 min 0 W/m 6,4 km/h (2 Bft) 95,74 %
22.05.2020 02:46 17,0 C 16,7 C 16,1 C 80 % 1018,5 hPa 0,0 l/m 0 min 0 min 0 W/m 3,2 km/h (1 Bft) 97,87 %
22.05.2020 02:48 17,1 C 16,7 C 16,1 C 80 % 1018,6 hPa 0,0 l/m 0 min 0 min 0 W/m 0,0 km/h (0 Bft) 97,83 %
22.05.2020 02:50 17,1 C 16,1 C 16,1 C 80 % 1018,6 hPa 0,0 l/m 0 min 0 min 0 W/m 3,2 km/h (1 Bft) 97,87 %
22.05.2020 02:52 17,1 C 16,1 C 15,6 C 80 % 1018,6 hPa 0,0 l/m 0 min 0 min 0 W/m 3,2 km/h (1 Bft) 97,87 %
22.05.2020 02:54 17,1 C 16,1 C 15,6 C 79 % 1018,5 hPa 0,0 l/m 0 min 0 min 0 W/m 6,4 km/h (2 Bft) 95,74 %
22.05.2020 02:56 17,2 C 16,1 C 15,6 C 79 % 1018,5 hPa 0,0 l/m 0 min 0 min 0 W/m 3,2 km/h (1 Bft) 97,87 %
22.05.2020 02:58 17,2 C 16,1 C 15,6 C 79 % 1018,5 hPa 0,0 l/m 0 min 0 min 0 W/m 0,0 km/h (0 Bft) 95,65 %
22.05.2020 03:00 17,2 C 16,1 C 15,0 C 79 % 1018,5 hPa 0,0 l/m 0 min 0 min 0 W/m 6,4 km/h (2 Bft) 97,87 %
22.05.2020 03:02 17,2 C 16,1 C 15,0 C 79 % 1018,5 hPa 0,0 l/m 0 min 0 min 0 W/m 3,2 km/h (1 Bft) 95,74 %
22.05.2020 03:04 17,2 C 16,1 C 15,0 C 79 % 1018,4 hPa 0,0 l/m 0 min 0 min 0 W/m 0,0 km/h (0 Bft) 95,74 %
22.05.2020 03:06 17,2 C 16,1 C 15,0 C 79 % 1018,5 hPa 0,0 l/m 0 min 0 min 0 W/m 3,2 km/h (1 Bft) 95,74 %
22.05.2020 03:08 17,2 C 16,1 C 15,0 C 79 % 1018,5 hPa 0,0 l/m 0 min 0 min 0 W/m 3,2 km/h (1 Bft) 97,87 %
22.05.2020 03:10 17,2 C 16,1 C 15,0 C 79 % 1018,5 hPa 0,0 l/m 0 min 0 min 0 W/m 3,2 km/h (1 Bft) 100,00 %
22.05.2020 03:12 17,2 C 16,1 C 15,0 C 79 % 1018,5 hPa 0,0 l/m 0 min 0 min 0 W/m 0,0 km/h (0 Bft) 97,87 %
22.05.2020 03:14 17,2 C 15,6 C 14,4 C 79 % 1018,5 hPa 0,0 l/m 0 min 0 min 0 W/m 0,0 km/h (0 Bft) 93,62 %
22.05.2020 03:16 17,2 C 15,6 C 14,4 C 78 % 1018,5 hPa 0,0 l/m 0 min 0 min 0 W/m 0,0 km/h (0 Bft) 97,87 %
22.05.2020 03:18 17,2 C 15,6 C 14,4 C 78 % 1018,5 hPa 0,0 l/m 0 min 0 min 0 W/m 0,0 km/h (0 Bft) 95,74 %
22.05.2020 03:20 17,2 C 15,6 C 14,4 C 78 % 1018,5 hPa 0,0 l/m 0 min 0 min 0 W/m 0,0 km/h (0 Bft) 97,87 %
22.05.2020 03:22 17,2 C 15,6 C 14,4 C 78 % 1018,5 hPa 0,0 l/m 0 min 0 min 0 W/m 0,0 km/h (0 Bft) 97,83 %
22.05.2020 03:24 17,2 C 15,6 C 14,4 C 78 % 1018,4 hPa 0,0 l/m 0 min 0 min 0 W/m 3,2 km/h (1 Bft) 97,87 %
22.05.2020 03:26 17,1 C 15,6 C 14,4 C 78 % 1018,5 hPa 0,0 l/m 0 min 0 min 0 W/m 3,2 km/h (1 Bft) 97,87 %
22.05.2020 03:28 17,1 C 15,6 C 13,9 C 79 % 1018,4 hPa 0,0 l/m 0 min 0 min 0 W/m 0,0 km/h (0 Bft) 95,74 %
22.05.2020 03:30 17,1 C 15,6 C 14,4 C 79 % 1018,4 hPa 0,0 l/m 0 min 0 min 0 W/m 6,4 km/h (2 Bft) 97,87 %
22.05.2020 03:32 17,1 C 15,6 C 14,4 C 79 % 1018,4 hPa 0,0 l/m 0 min 0 min 0 W/m 3,2 km/h (1 Bft) 97,87 %
22.05.2020 03:34 17,1 C 15,6 C 14,4 C 79 % 1018,4 hPa 0,0 l/m 0 min 0 min 0 W/m 0,0 km/h (0 Bft) 97,83 %
22.05.2020 03:36 17,1 C 15,6 C 14,4 C 79 % 1018,4 hPa 0,0 l/m 0 min 0 min 0 W/m 0,0 km/h (0 Bft) 97,87 %
22.05.2020 03:38 17,1 C 15,6 C 14,4 C 79 % 1018,4 hPa 0,0 l/m 0 min 0 min 0 W/m 0,0 km/h (0 Bft) 95,74 %
22.05.2020 03:40 17,0 C 15,6 C 15,0 C 79 % 1018,3 hPa 0,0 l/m 0 min 0 min 0 W/m 6,4 km/h (2 Bft) 95,74 %
22.05.2020 03:42 17,0 C 15,6 C 15,0 C 79 % 1018,4 hPa 0,0 l/m 0 min 0 min 0 W/m 3,2 km/h (1 Bft) 93,62 %
22.05.2020 03:44 17,0 C 15,6 C 15,0 C 79 % 1018,4 hPa 0,0 l/m 0 min 0 min 0 W/m 0,0 km/h (0 Bft) 97,83 %
22.05.2020 03:46 17,0 C 15,6 C 15,0 C 79 % 1018,4 hPa 0,0 l/m 0 min 0 min 0 W/m 3,2 km/h (1 Bft) 95,74 %
22.05.2020 03:48 16,9 C 15,6 C 15,0 C 79 % 1018,4 hPa 0,0 l/m 0 min 0 min 0 W/m 6,4 km/h (2 Bft) 97,87 %
22.05.2020 03:50 16,9 C 15,6 C 15,0 C 80 % 1018,4 hPa 0,0 l/m 0 min 0 min 0 W/m 3,2 km/h (1 Bft) 97,87 %
22.05.2020 03:52 16,9 C 15,6 C 15,0 C 80 % 1018,4 hPa 0,0 l/m 0 min 0 min 0 W/m 12,9 km/h (3 Bft) 97,87 %
22.05.2020 03:54 16,9 C 15,6 C 15,0 C 80 % 1018,4 hPa 0,0 l/m 0 min 0 min 0 W/m 12,9 km/h (3 Bft) 100,00 %
22.05.2020 03:56 16,9 C 15,6 C 15,0 C 80 % 1018,3 hPa 0,0 l/m 0 min 0 min 0 W/m 3,2 km/h (1 Bft) 100,00 %
22.05.2020 03:58 16,9 C 15,6 C 15,0 C 80 % 1018,3 hPa 0,0 l/m 0 min 0 min 0 W/m 3,2 km/h (1 Bft) 100,00 %
22.05.2020 04:00 16,9 C 15,6 C 15,0 C 80 % 1018,3 hPa 0,0 l/m 0 min 0 min 0 W/m 3,2 km/h (1 Bft) 100,00 %
22.05.2020 04:02 16,8 C 15,6 C 15,0 C 80 % 1018,3 hPa 0,0 l/m 0 min 0 min 0 W/m 6,4 km/h (2 Bft) 100,00 %
22.05.2020 04:04 16,8 C 15,6 C 15,0 C 80 % 1018,3 hPa 0,0 l/m 0 min 0 min 0 W/m 3,2 km/h (1 Bft) 100,00 %
22.05.2020 04:06 16,8 C 15,6 C 15,0 C 80 % 1018,3 hPa 0,0 l/m 0 min 0 min 0 W/m 12,9 km/h (3 Bft) 95,65 %
22.05.2020 04:08 16,8 C 15,6 C 15,0 C 80 % 1018,3 hPa 0,0 l/m 0 min 0 min 0 W/m 12,9 km/h (3 Bft) 98,31 %
22.05.2020 04:10 16,8 C 15,6 C 15,0 C 80 % 1018,3 hPa 0,0 l/m 0 min 0 min 0 W/m 6,4 km/h (2 Bft) 97,14 %
22.05.2020 04:12 16,8 C 15,6 C 15,0 C 80 % 1018,3 hPa 0,0 l/m 0 min 0 min 0 W/m 6,4 km/h (2 Bft) 97,87 %
22.05.2020 04:14 16,8 C 15,6 C 15,0 C 80 % 1018,3 hPa 0,0 l/m 0 min 0 min 0 W/m 12,9 km/h (3 Bft) 97,87 %
22.05.2020 04:16 16,7 C 15,6 C 15,0 C 80 % 1018,4 hPa 0,0 l/m 0 min 0 min 0 W/m 6,4 km/h (2 Bft) 95,74 %
22.05.2020 04:18 16,7 C 15,6 C 15,0 C 80 % 1018,4 hPa 0,0 l/m 0 min 0 min 0 W/m 6,4 km/h (2 Bft) 97,83 %
22.05.2020 04:20 16,7 C 15,6 C 15,0 C 81 % 1018,4 hPa 0,0 l/m 0 min 0 min 0 W/m 12,9 km/h (3 Bft) 97,87 %
22.05.2020 04:22 16,7 C 15,6 C 15,0 C 81 % 1018,4 hPa 0,0 l/m 0 min 0 min 0 W/m 6,4 km/h (2 Bft) 97,87 %
22.05.2020 04:24 16,7 C 15,6 C 15,0 C 81 % 1018,3 hPa 0,0 l/m 0 min 0 min 0 W/m 6,4 km/h (2 Bft) 97,87 %
22.05.2020 04:26 16,7 C 15,0 C 15,0 C 81 % 1018,3 hPa 0,0 l/m 0 min 0 min 0 W/m 12,9 km/h (3 Bft) 95,74 %
22.05.2020 04:28 16,7 C 15,6 C 15,0 C 81 % 1018,3 hPa 0,0 l/m 0 min 0 min 0 W/m 6,4 km/h (2 Bft) 97,87 %
22.05.2020 04:30 16,6 C 15,6 C 15,0 C 81 % 1018,3 hPa 0,0 l/m 0 min 0 min 0 W/m 6,4 km/h (2 Bft) 97,83 %
22.05.2020 04:32 16,6 C 15,6 C 15,0 C 81 % 1018,3 hPa 0,0 l/m 0 min 0 min 0 W/m 12,9 km/h (3 Bft) 97,87 %
22.05.2020 04:34 16,6 C 15,6 C 15,0 C 81 % 1018,2 hPa 0,0 l/m 0 min 0 min 0 W/m 12,9 km/h (3 Bft) 95,74 %
22.05.2020 04:36 16,6 C 15,6 C 15,0 C 81 % 1018,2 hPa 0,0 l/m 0 min 0 min 0 W/m 12,9 km/h (3 Bft) 97,87 %
22.05.2020 04:38 16,6 C 15,6 C 15,0 C 81 % 1018,2 hPa 0,0 l/m 0 min 0 min 0 W/m 12,9 km/h (3 Bft) 98,28 %
22.05.2020 04:40 16,6 C 15,6 C 15,0 C 81 % 1018,2 hPa 0,0 l/m 0 min 0 min 0 W/m 12,9 km/h (3 Bft) 97,22 %
22.05.2020 04:42 16,6 C 15,0 C 15,0 C 81 % 1018,2 hPa 0,0 l/m 0 min 0 min 0 W/m 12,9 km/h (3 Bft) 97,83 %
22.05.2020 04:44 16,6 C 15,0 C 15,0 C 81 % 1018,1 hPa 0,0 l/m 0 min 0 min 0 W/m 6,4 km/h (2 Bft) 97,87 %
22.05.2020 04:46 16,5 C 15,0 C 15,0 C 81 % 1018,1 hPa 0,0 l/m 0 min 0 min 0 W/m 6,4 km/h (2 Bft) 97,87 %
22.05.2020 04:48 16,5 C 15,0 C 15,0 C 81 % 1018,0 hPa 0,0 l/m 0 min 0 min 0 W/m 6,4 km/h (2 Bft) 97,87 %
22.05.2020 04:50 16,5 C 15,0 C 15,0 C 82 % 1018,0 hPa 0,0 l/m 0 min 0 min 0 W/m 16,1 km/h (3 Bft) 97,87 %
22.05.2020 04:52 16,5 C 15,0 C 15,0 C 82 % 1018,0 hPa 0,0 l/m 0 min 0 min 0 W/m 3,2 km/h (1 Bft) 95,65 %
22.05.2020 04:54 16,4 C 15,0 C 15,0 C 82 % 1018,0 hPa 0,0 l/m 0 min 0 min 0 W/m 12,9 km/h (3 Bft) 97,87 %
22.05.2020 04:56 16,4 C 15,0 C 15,0 C 82 % 1018,1 hPa 0,0 l/m 0 min 0 min 0 W/m 12,9 km/h (3 Bft) 100,00 %
22.05.2020 04:58 16,4 C 15,0 C 15,0 C 82 % 1018,1 hPa 0,0 l/m 0 min 0 min 0 W/m 6,4 km/h (2 Bft) 100,00 %
22.05.2020 05:00 16,4 C 15,0 C 15,0 C 82 % 1018,1 hPa 0,0 l/m 0 min 0 min 0 W/m 9,7 km/h (2 Bft) 100,00 %
22.05.2020 05:02 16,4 C 15,0 C 15,0 C 82 % 1018,1 hPa 0,0 l/m 0 min 0 min 0 W/m 6,4 km/h (2 Bft) 100,00 %
22.05.2020 05:04 16,4 C 15,0 C 14,4 C 82 % 1018,1 hPa 0,0 l/m 0 min 0 min 0 W/m 6,4 km/h (2 Bft) 100,00 %
22.05.2020 05:06 16,4 C 15,0 C 14,4 C 82 % 1018,1 hPa 0,0 l/m 0 min 0 min 0 W/m 6,4 km/h (2 Bft) 100,00 %
22.05.2020 05:08 16,4 C 15,0 C 14,4 C 82 % 1018,0 hPa 0,0 l/m 0 min 0 min 0 W/m 6,4 km/h (2 Bft) 100,00 %
22.05.2020 05:10 16,4 C 15,0 C 14,4 C 83 % 1018,0 hPa 0,0 l/m 0 min 0 min 0 W/m 6,4 km/h (2 Bft) 100,00 %
22.05.2020 05:12 16,3 C 15,0 C 14,4 C 83 % 1018,0 hPa 0,0 l/m 0 min 0 min 0 W/m 3,2 km/h (1 Bft) 100,00 %
22.05.2020 05:14 16,3 C 15,0 C 14,4 C 83 % 1018,0 hPa 0,0 l/m 0 min 0 min 0 W/m 12,9 km/h (3 Bft) 100,00 %
22.05.2020 05:16 16,3 C 15,0 C 14,4 C 83 % 1018,0 hPa 0,0 l/m 0 min 0 min 0 W/m 12,9 km/h (3 Bft) 100,00 %
22.05.2020 05:18 16,3 C 15,0 C 14,4 C 83 % 1018,0 hPa 0,0 l/m 0 min 0 min 0 W/m 6,4 km/h (2 Bft) 100,00 %
22.05.2020 05:20 16,3 C 15,0 C 14,4 C 83 % 1017,9 hPa 0,0 l/m 0 min 0 min 0 W/m 12,9 km/h (3 Bft) 97,87 %
22.05.2020 05:22 16,3 C 15,0 C 14,4 C 83 % 1017,9 hPa 0,0 l/m 0 min 0 min 0 W/m 12,9 km/h (3 Bft) 100,00 %
22.05.2020 05:24 16,2 C 15,0 C 14,4 C 83 % 1018,0 hPa 0,0 l/m 0 min 0 min 0 W/m 6,4 km/h (2 Bft) 100,00 %
22.05.2020 05:26 16,2 C 15,0 C 14,4 C 83 % 1018,0 hPa 0,0 l/m 0 min 0 min 0 W/m 3,2 km/h (1 Bft) 100,00 %
22.05.2020 05:28 16,2 C 15,0 C 14,4 C 83 % 1018,0 hPa 0,0 l/m 0 min 0 min 0 W/m 6,4 km/h (2 Bft) 100,00 %
22.05.2020 05:30 16,2 C 15,0 C 14,4 C 83 % 1018,0 hPa 0,0 l/m 0 min 0 min 0 W/m 6,4 km/h (2 Bft) 97,87 %
22.05.2020 05:32 16,2 C 15,0 C 14,4 C 83 % 1018,0 hPa 0,0 l/m 0 min 0 min 0 W/m 6,4 km/h (2 Bft) 95,74 %
22.05.2020 05:34 16,2 C 15,0 C 14,4 C 83 % 1018,0 hPa 0,0 l/m 0 min 0 min 0 W/m 0,0 km/h (0 Bft) 97,87 %
22.05.2020 05:36 16,2 C 15,0 C 14,4 C 83 % 1018,1 hPa 0,0 l/m 0 min 0 min 0 W/m 3,2 km/h (1 Bft) 97,87 %
22.05.2020 05:38 16,2 C 15,0 C 14,4 C 84 % 1018,0 hPa 0,0 l/m 0 min 0 min 0 W/m 6,4 km/h (2 Bft) 98,28 %
22.05.2020 05:40 16,2 C 15,0 C 14,4 C 84 % 1018,0 hPa 0,0 l/m 0 min 0 min 1 W/m 6,4 km/h (2 Bft) 97,14 %
22.05.2020 05:42 16,1 C 15,0 C 14,4 C 84 % 1018,1 hPa 0,0 l/m 0 min 0 min 5 W/m 6,4 km/h (2 Bft) 97,87 %
22.05.2020 05:44 16,1 C 15,0 C 14,4 C 84 % 1018,0 hPa 0,0 l/m 0 min 0 min 5 W/m 6,4 km/h (2 Bft) 100,00 %
22.05.2020 05:46 16,1 C 15,0 C 14,4 C 84 % 1018,0 hPa 0,0 l/m 0 min 0 min 7 W/m 3,2 km/h (1 Bft) 97,87 %
22.05.2020 05:48 16,1 C 15,0 C 14,4 C 84 % 1018,1 hPa 0,0 l/m 0 min 0 min 8 W/m 6,4 km/h (2 Bft) 100,00 %
22.05.2020 05:50 16,1 C 15,0 C 14,4 C 84 % 1018,1 hPa 0,0 l/m 0 min 0 min 11 W/m 3,2 km/h (1 Bft) 97,87 %
22.05.2020 05:52 16,1 C 15,0 C 15,0 C 84 % 1018,0 hPa 0,0 l/m 0 min 0 min 12 W/m 3,2 km/h (1 Bft) 97,83 %
22.05.2020 05:54 16,1 C 15,0 C 14,4 C 84 % 1018,1 hPa 0,0 l/m 0 min 0 min 15 W/m 3,2 km/h (1 Bft) 97,87 %
22.05.2020 05:56 16,1 C 15,6 C 14,4 C 84 % 1018,1 hPa 0,0 l/m 0 min 0 min 18 W/m 3,2 km/h (1 Bft) 97,87 %
22.05.2020 05:58 16,1 C 15,6 C 15,0 C 84 % 1018,1 hPa 0,0 l/m 0 min 0 min 19 W/m 3,2 km/h (1 Bft) 95,74 %
22.05.2020 06:00 16,1 C 15,6 C 15,0 C 84 % 1018,1 hPa 0,0 l/m 0 min 0 min 21 W/m 0,0 km/h (0 Bft) 95,74 %
22.05.2020 06:02 16,1 C 15,6 C 15,0 C 84 % 1018,1 hPa 0,0 l/m 0 min 0 min 21 W/m 3,2 km/h (1 Bft) 95,74 %
22.05.2020 06:04 16,1 C 15,6 C 15,0 C 84 % 1018,1 hPa 0,0 l/m 0 min 0 min 23 W/m 6,4 km/h (2 Bft) 93,48 %
22.05.2020 06:08 16,1 C 15,6 C 15,0 C 85 % 1018,0 hPa 0,0 l/m 0 min 0 min 23 W/m 12,9 km/h (3 Bft) 94,68 %
22.05.2020 06:10 16,1 C 15,6 C 15,0 C 85 % 1018,0 hPa 0,0 l/m 0 min 0 min 25 W/m 6,4 km/h (2 Bft) 95,74 %
22.05.2020 06:12 16,1 C 15,6 C 15,0 C 85 % 1018,0 hPa 0,0 l/m 0 min 0 min 25 W/m 3,2 km/h (1 Bft) 95,74 %
22.05.2020 06:14 16,2 C 15,6 C 15,0 C 85 % 1018,0 hPa 0,0 l/m 0 min 0 min 25 W/m 3,2 km/h (1 Bft) 95,65 %
22.05.2020 06:16 16,2 C 15,6 C 15,0 C 85 % 1018,0 hPa 0,0 l/m 0 min 0 min 25 W/m 3,2 km/h (1 Bft) 95,74 %
22.05.2020 06:18 16,2 C 15,6 C 15,0 C 85 % 1018,0 hPa 0,0 l/m 0 min 0 min 27 W/m 3,2 km/h (1 Bft) 91,49 %
22.05.2020 06:20 16,2 C 15,6 C 15,0 C 85 % 1018,0 hPa 0,0 l/m 0 min 0 min 30 W/m 12,9 km/h (3 Bft) 95,74 %
22.05.2020 06:22 16,2 C 15,6 C 15,0 C 85 % 1018,0 hPa 0,0 l/m 0 min 0 min 33 W/m 12,9 km/h (3 Bft) 95,74 %
22.05.2020 06:24 16,2 C 15,6 C 15,0 C 85 % 1018,0 hPa 0,0 l/m 0 min 0 min 37 W/m 16,1 km/h (3 Bft) 95,74 %
22.05.2020 06:26 16,2 C 16,1 C 15,0 C 85 % 1018,0 hPa 0,0 l/m 0 min 0 min 41 W/m 3,2 km/h (1 Bft) 95,65 %
22.05.2020 06:28 16,3 C 16,1 C 15,6 C 85 % 1018,0 hPa 0,0 l/m 0 min 0 min 44 W/m 12,9 km/h (3 Bft) 95,74 %
22.05.2020 06:30 16,3 C 16,1 C 15,6 C 85 % 1017,9 hPa 0,0 l/m 0 min 0 min 47 W/m 3,2 km/h (1 Bft) 95,74 %
22.05.2020 06:32 16,3 C 16,1 C 15,6 C 85 % 1018,0 hPa 0,0 l/m 0 min 0 min 50 W/m 6,4 km/h (2 Bft) 95,74 %
22.05.2020 06:34 16,3 C 16,1 C 15,6 C 85 % 1017,9 hPa 0,0 l/m 0 min 0 min 52 W/m 6,4 km/h (2 Bft) 97,87 %
22.05.2020 06:36 16,3 C 16,1 C 15,6 C 85 % 1017,9 hPa 0,0 l/m 0 min 0 min 53 W/m 12,9 km/h (3 Bft) 98,28 %
22.05.2020 06:38 16,4 C 16,1 C 15,6 C 85 % 1017,9 hPa 0,0 l/m 0 min 0 min 54 W/m 19,3 km/h (3 Bft) 97,87 %
22.05.2020 06:40 16,4 C 16,1 C 15,6 C 85 % 1017,9 hPa 0,0 l/m 0 min 0 min 54 W/m 16,1 km/h (3 Bft) 97,14 %
22.05.2020 06:42 16,4 C 16,1 C 15,6 C 85 % 1017,9 hPa 0,0 l/m 0 min 0 min 56 W/m 16,1 km/h (3 Bft) 97,87 %
22.05.2020 06:44 16,5 C 16,1 C 15,6 C 85 % 1017,9 hPa 0,0 l/m 0 min 0 min 56 W/m 6,4 km/h (2 Bft) 97,87 %
22.05.2020 06:46 16,5 C 16,7 C 15,6 C 85 % 1017,9 hPa 0,0 l/m 0 min 0 min 56 W/m 3,2 km/h (1 Bft) 97,87 %
22.05.2020 06:48 16,6 C 16,7 C 15,6 C 85 % 1017,9 hPa 0,0 l/m 0 min 0 min 56 W/m 12,9 km/h (3 Bft) 97,87 %
22.05.2020 06:50 16,6 C 16,7 C 15,6 C 85 % 1017,8 hPa 0,0 l/m 0 min 0 min 56 W/m 6,4 km/h (2 Bft) 97,83 %
22.05.2020 06:52 16,6 C 16,7 C 15,6 C 85 % 1017,8 hPa 0,0 l/m 0 min 0 min 56 W/m 12,9 km/h (3 Bft) 97,87 %
22.05.2020 06:54 16,6 C 16,7 C 16,1 C 85 % 1017,8 hPa 0,0 l/m 0 min 0 min 56 W/m 12,9 km/h (3 Bft) 100,00 %
22.05.2020 06:56 16,7 C 16,7 C 16,1 C 85 % 1017,8 hPa 0,0 l/m 0 min 0 min 56 W/m 12,9 km/h (3 Bft) 97,87 %
22.05.2020 06:58 16,7 C 16,7 C 16,1 C 85 % 1017,8 hPa 0,0 l/m 0 min 0 min 56 W/m 12,9 km/h (3 Bft) 97,87 %
22.05.2020 07:00 16,7 C 16,7 C 16,1 C 85 % 1017,8 hPa 0,0 l/m 0 min 0 min 57 W/m 16,1 km/h (3 Bft) 97,83 %
22.05.2020 07:02 16,8 C 16,7 C 16,1 C 85 % 1017,8 hPa 0,0 l/m 0 min 0 min 58 W/m 16,1 km/h (3 Bft) 95,74 %
22.05.2020 07:04 16,8 C 16,7 C 16,1 C 85 % 1017,8 hPa 0,0 l/m 0 min 0 min 58 W/m 12,9 km/h (3 Bft) 97,87 %
22.05.2020 07:06 16,8 C 16,7 C 16,1 C 84 % 1017,8 hPa 0,0 l/m 0 min 0 min 57 W/m 16,1 km/h (3 Bft) 97,87 %
22.05.2020 07:08 16,8 C 16,7 C 16,1 C 84 % 1017,8 hPa 0,0 l/m 0 min 0 min 56 W/m 16,1 km/h (3 Bft) 94,92 %
22.05.2020 07:10 16,8 C 16,7 C 16,1 C 84 % 1017,8 hPa 0,0 l/m 0 min 0 min 54 W/m 16,1 km/h (3 Bft) 97,14 %
22.05.2020 07:12 16,9 C 16,7 C 16,1 C 84 % 1017,8 hPa 0,0 l/m 0 min 0 min 54 W/m 12,9 km/h (3 Bft) 98,08 %
22.05.2020 07:14 16,9 C 16,7 C 16,1 C 84 % 1017,8 hPa 0,0 l/m 0 min 0 min 54 W/m 12,9 km/h (3 Bft) 97,83 %
22.05.2020 07:16 16,9 C 16,7 C 16,1 C 84 % 1017,8 hPa 0,0 l/m 0 min 0 min 56 W/m 12,9 km/h (3 Bft) 97,87 %
22.05.2020 07:18 17,0 C 16,7 C 16,1 C 84 % 1017,8 hPa 0,0 l/m 0 min 0 min 60 W/m 16,1 km/h (3 Bft) 97,87 %
22.05.2020 07:20 17,0 C 16,7 C 16,1 C 84 % 1017,8 hPa 0,0 l/m 0 min 0 min 62 W/m 12,9 km/h (3 Bft) 97,87 %
22.05.2020 07:22 17,1 C 16,7 C 16,1 C 84 % 1017,9 hPa 0,0 l/m 0 min 0 min 64 W/m 6,4 km/h (2 Bft) 97,87 %
22.05.2020 07:24 17,1 C 16,7 C 16,1 C 84 % 1017,8 hPa 0,0 l/m 0 min 0 min 65 W/m 12,9 km/h (3 Bft) 97,87 %
22.05.2020 07:26 17,1 C 17,2 C 16,1 C 84 % 1017,9 hPa 0,0 l/m 0 min 0 min 67 W/m 6,4 km/h (2 Bft) 95,65 %
22.05.2020 07:28 17,2 C 17,2 C 16,7 C 84 % 1017,9 hPa 0,0 l/m 0 min 0 min 68 W/m 16,1 km/h (3 Bft) 97,87 %
22.05.2020 07:30 17,2 C 17,2 C 16,7 C 84 % 1017,9 hPa 0,0 l/m 0 min 0 min 69 W/m 16,1 km/h (3 Bft) 97,87 %
22.05.2020 07:32 17,2 C 17,2 C 16,7 C 84 % 1017,9 hPa 0,0 l/m 0 min 0 min 70 W/m 16,1 km/h (3 Bft) 97,87 %
22.05.2020 07:34 17,3 C 17,2 C 16,7 C 84 % 1017,9 hPa 0,0 l/m 0 min 0 min 73 W/m 12,9 km/h (3 Bft) 97,87 %
22.05.2020 07:36 17,3 C 17,2 C 16,7 C 84 % 1018,0 hPa 0,0 l/m 0 min 0 min 76 W/m 16,1 km/h (3 Bft) 97,87 %
22.05.2020 07:38 17,3 C 17,2 C 16,7 C 84 % 1018,0 hPa 0,0 l/m 0 min 0 min 81 W/m 9,7 km/h (2 Bft) 97,83 %
22.05.2020 07:40 17,3 C 17,2 C 16,7 C 84 % 1018,1 hPa 0,0 l/m 0 min 0 min 84 W/m 9,7 km/h (2 Bft) 95,74 %
22.05.2020 07:42 17,3 C 17,2 C 16,7 C 84 % 1018,1 hPa 0,0 l/m 0 min 0 min 87 W/m 6,4 km/h (2 Bft) 100,00 %
22.05.2020 07:44 17,4 C 17,2 C 16,7 C 84 % 1018,0 hPa 0,0 l/m 0 min 0 min 91 W/m 16,1 km/h (3 Bft) 95,74 %
22.05.2020 07:46 17,4 C 17,2 C 16,7 C 84 % 1018,0 hPa 0,0 l/m 0 min 0 min 92 W/m 6,4 km/h (2 Bft) 97,87 %
22.05.2020 07:48 17,4 C 17,2 C 16,7 C 84 % 1018,0 hPa 0,0 l/m 0 min 0 min 96 W/m 6,4 km/h (2 Bft) 100,00 %
22.05.2020 07:50 17,5 C 17,8 C 16,7 C 84 % 1018,0 hPa 0,0 l/m 0 min 0 min 99 W/m 6,4 km/h (2 Bft) 100,00 %
22.05.2020 07:52 17,5 C 17,8 C 16,7 C 83 % 1018,0 hPa 0,0 l/m 0 min 0 min 102 W/m 12,9 km/h (3 Bft) 100,00 %
22.05.2020 07:54 17,5 C 17,8 C 16,7 C 83 % 1017,9 hPa 0,0 l/m 0 min 0 min 106 W/m 12,9 km/h (3 Bft) 97,87 %
22.05.2020 07:56 17,6 C 17,8 C 16,7 C 83 % 1018,0 hPa 0,0 l/m 0 min 0 min 109 W/m 6,4 km/h (2 Bft) 100,00 %
22.05.2020 07:58 17,6 C 17,8 C 16,7 C 83 % 1018,0 hPa 0,0 l/m 0 min 0 min 113 W/m 3,2 km/h (1 Bft) 100,00 %
22.05.2020 08:00 17,6 C 17,8 C 17,2 C 83 % 1018,0 hPa 0,0 l/m 0 min 0 min 117 W/m 12,9 km/h (3 Bft) 97,87 %
22.05.2020 08:02 17,6 C 17,8 C 17,2 C 83 % 1018,0 hPa 0,0 l/m 0 min 0 min 119 W/m 12,9 km/h (3 Bft) 100,00 %
22.05.2020 08:04 17,7 C 17,8 C 17,2 C 83 % 1018,0 hPa 0,0 l/m 0 min 0 min 121 W/m 6,4 km/h (2 Bft) 100,00 %
22.05.2020 08:06 17,7 C 17,8 C 17,2 C 83 % 1018,0 hPa 0,0 l/m 0 min 0 min 124 W/m 6,4 km/h (2 Bft) 100,00 %
22.05.2020 08:08 17,7 C 18,3 C 17,2 C 83 % 1018,0 hPa 0,0 l/m 0 min 0 min 128 W/m 6,4 km/h (2 Bft) 100,00 %
22.05.2020 08:10 17,8 C 18,3 C 17,2 C 84 % 1018,0 hPa 0,0 l/m 0 min 0 min 132 W/m 6,4 km/h (2 Bft) 100,00 %
22.05.2020 08:12 17,8 C 18,3 C 17,2 C 84 % 1018,0 hPa 0,0 l/m 0 min 0 min 136 W/m 9,7 km/h (2 Bft) 100,00 %
22.05.2020 08:14 17,8 C 18,3 C 17,2 C 83 % 1018,0 hPa 0,0 l/m 0 min 0 min 142 W/m 12,9 km/h (3 Bft) 100,00 %
22.05.2020 08:16 17,8 C 18,3 C 17,2 C 83 % 1018,0 hPa 0,0 l/m 0 min 0 min 146 W/m 6,4 km/h (2 Bft) 97,87 %
22.05.2020 08:18 17,9 C 18,3 C 17,2 C 83 % 1018,0 hPa 0,0 l/m 0 min 0 min 150 W/m 12,9 km/h (3 Bft) 100,00 %
22.05.2020 08:20 17,9 C 18,3 C 17,8 C 83 % 1018,0 hPa 0,0 l/m 0 min 0 min 154 W/m 12,9 km/h (3 Bft) 100,00 %
22.05.2020 08:22 17,9 C 18,3 C 17,8 C 83 % 1018,0 hPa 0,0 l/m 0 min 0 min 155 W/m 6,4 km/h (2 Bft) 100,00 %
22.05.2020 08:24 17,9 C 18,3 C 17,8 C 83 % 1018,0 hPa 0,0 l/m 0 min 0 min 155 W/m 16,1 km/h (3 Bft) 97,83 %
22.05.2020 08:26 18,0 C 18,9 C 17,8 C 83 % 1018,0 hPa 0,0 l/m 0 min 0 min 154 W/m 6,4 km/h (2 Bft) 97,87 %
22.05.2020 08:28 18,1 C 18,9 C 17,8 C 83 % 1017,9 hPa 0,0 l/m 0 min 0 min 152 W/m 6,4 km/h (2 Bft) 100,00 %
22.05.2020 08:30 18,1 C 18,9 C 17,8 C 83 % 1017,9 hPa 0,0 l/m 0 min 0 min 151 W/m 6,4 km/h (2 Bft) 100,00 %
22.05.2020 08:32 18,1 C 18,9 C 17,8 C 83 % 1017,9 hPa 0,0 l/m 0 min 0 min 149 W/m 12,9 km/h (3 Bft) 100,00 %
22.05.2020 08:34 18,2 C 18,9 C 17,8 C 83 % 1017,9 hPa 0,0 l/m 0 min 0 min 146 W/m 16,1 km/h (3 Bft) 100,00 %
22.05.2020 08:36 18,2 C 18,9 C 17,8 C 83 % 1017,9 hPa 0,0 l/m 0 min 0 min 141 W/m 3,2 km/h (1 Bft) 97,83 %
22.05.2020 08:38 18,2 C 18,3 C 17,8 C 83 % 1017,9 hPa 0,0 l/m 0 min 0 min 137 W/m 16,1 km/h (3 Bft) 97,87 %
22.05.2020 08:40 18,3 C 18,3 C 17,8 C 83 % 1017,9 hPa 0,0 l/m 0 min 0 min 134 W/m 6,4 km/h (2 Bft) 95,74 %
22.05.2020 08:42 18,3 C 18,3 C 17,8 C 83 % 1017,9 hPa 0,0 l/m 0 min 0 min 131 W/m 16,1 km/h (3 Bft) 97,87 %
22.05.2020 08:44 18,3 C 18,3 C 17,8 C 82 % 1017,9 hPa 0,0 l/m 0 min 0 min 128 W/m 16,1 km/h (3 Bft) 97,87 %
22.05.2020 08:46 18,3 C 18,3 C 17,8 C 82 % 1017,8 hPa 0,0 l/m 0 min 0 min 126 W/m 12,9 km/h (3 Bft) 95,74 %
22.05.2020 08:48 18,4 C 18,3 C 17,8 C 82 % 1017,8 hPa 0,0 l/m 0 min 0 min 125 W/m 12,9 km/h (3 Bft) 97,83 %
22.05.2020 08:50 18,4 C 18,9 C 17,8 C 82 % 1017,8 hPa 0,0 l/m 0 min 0 min 126 W/m 12,9 km/h (3 Bft) 97,87 %
22.05.2020 08:52 18,4 C 18,3 C 17,8 C 82 % 1017,8 hPa 0,0 l/m 0 min 0 min 128 W/m 16,1 km/h (3 Bft) 97,87 %
22.05.2020 08:54 18,4 C 18,3 C 17,8 C 82 % 1017,8 hPa 0,0 l/m 0 min 0 min 131 W/m 16,1 km/h (3 Bft) 97,87 %
22.05.2020 08:56 18,4 C 18,9 C 17,8 C 82 % 1017,8 hPa 0,0 l/m 0 min 0 min 134 W/m 12,9 km/h (3 Bft) 100,00 %
22.05.2020 08:58 18,5 C 18,9 C 17,8 C 82 % 1017,8 hPa 0,0 l/m 0 min 0 min 135 W/m 12,9 km/h (3 Bft) 100,00 %
22.05.2020 09:00 18,5 C 18,9 C 17,8 C 82 % 1017,8 hPa 0,0 l/m 0 min 0 min 134 W/m 6,4 km/h (2 Bft) 97,83 %
22.05.2020 09:02 18,6 C 18,9 C 17,8 C 82 % 1017,8 hPa 0,0 l/m 0 min 0 min 133 W/m 16,1 km/h (3 Bft) 97,87 %
22.05.2020 09:04 18,6 C 18,9 C 17,8 C 82 % 1017,8 hPa 0,0 l/m 0 min 0 min 132 W/m 12,9 km/h (3 Bft) 97,87 %
22.05.2020 09:06 18,6 C 18,9 C 17,8 C 82 % 1017,8 hPa 0,0 l/m 0 min 0 min 132 W/m 12,9 km/h (3 Bft) 95,74 %
22.05.2020 09:08 18,6 C 18,9 C 17,8 C 82 % 1017,8 hPa 0,0 l/m 0 min 0 min 135 W/m 12,9 km/h (3 Bft) 97,87 %
22.05.2020 09:10 18,6 C 18,9 C 18,3 C 82 % 1017,8 hPa 0,0 l/m 0 min 0 min 140 W/m 6,4 km/h (2 Bft) 97,83 %
22.05.2020 09:12 18,7 C 18,9 C 18,3 C 82 % 1017,8 hPa 0,0 l/m 0 min 0 min 144 W/m 12,9 km/h (3 Bft) 95,74 %
22.05.2020 09:14 18,7 C 18,9 C 18,3 C 82 % 1017,8 hPa 0,0 l/m 0 min 0 min 148 W/m 6,4 km/h (2 Bft) 95,74 %
22.05.2020 09:16 18,7 C 18,9 C 18,3 C 82 % 1017,9 hPa 0,0 l/m 0 min 0 min 150 W/m 6,4 km/h (2 Bft) 93,62 %
22.05.2020 09:18 18,8 C 19,4 C 18,3 C 82 % 1017,9 hPa 0,0 l/m 0 min 0 min 154 W/m 6,4 km/h (2 Bft) 93,62 %
22.05.2020 09:20 18,8 C 19,4 C 18,3 C 82 % 1017,9 hPa 0,0 l/m 0 min 0 min 158 W/m 12,9 km/h (3 Bft) 95,74 %
22.05.2020 09:22 18,8 C 19,4 C 18,3 C 82 % 1017,8 hPa 0,0 l/m 0 min 0 min 162 W/m 12,9 km/h (3 Bft) 93,48 %
22.05.2020 09:24 18,9 C 19,4 C 18,3 C 82 % 1017,8 hPa 0,0 l/m 0 min 0 min 165 W/m 16,1 km/h (3 Bft) 95,74 %
22.05.2020 09:26 18,9 C 19,4 C 18,3 C 82 % 1017,8 hPa 0,0 l/m 0 min 0 min 169 W/m 6,4 km/h (2 Bft) 95,74 %
22.05.2020 09:28 18,9 C 19,4 C 18,9 C 82 % 1017,9 hPa 0,0 l/m 0 min 0 min 172 W/m 9,7 km/h (2 Bft) 95,74 %
22.05.2020 09:30 19,0 C 20,0 C 18,9 C 82 % 1017,9 hPa 0,0 l/m 0 min 0 min 175 W/m 6,4 km/h (2 Bft) 95,74 %
22.05.2020 09:32 19,1 C 20,0 C 18,9 C 82 % 1017,9 hPa 0,0 l/m 0 min 0 min 178 W/m 16,1 km/h (3 Bft) 95,74 %
22.05.2020 09:34 19,1 C 20,0 C 18,9 C 82 % 1017,9 hPa 0,0 l/m 0 min 0 min 179 W/m 12,9 km/h (3 Bft) 93,48 %
22.05.2020 09:36 19,1 C 20,0 C 18,9 C 81 % 1017,9 hPa 0,0 l/m 0 min 0 min 178 W/m 6,4 km/h (2 Bft) 93,62 %
22.05.2020 09:38 19,2 C 20,0 C 18,9 C 81 % 1017,9 hPa 0,0 l/m 0 min 0 min 174 W/m 12,9 km/h (3 Bft) 95,74 %
22.05.2020 09:40 19,2 C 20,0 C 18,9 C 81 % 1018,0 hPa 0,0 l/m 0 min 0 min 168 W/m 12,9 km/h (3 Bft) 93,62 %
22.05.2020 09:42 19,3 C 20,0 C 18,9 C 81 % 1017,9 hPa 0,0 l/m 0 min 0 min 162 W/m 3,2 km/h (1 Bft) 93,62 %
22.05.2020 09:44 19,3 C 20,0 C 18,9 C 81 % 1017,9 hPa 0,0 l/m 0 min 0 min 159 W/m 12,9 km/h (3 Bft) 93,62 %
22.05.2020 09:46 19,4 C 20,0 C 18,9 C 81 % 1017,9 hPa 0,0 l/m 0 min 0 min 159 W/m 12,9 km/h (3 Bft) 95,65 %
22.05.2020 09:48 19,4 C 20,0 C 18,9 C 81 % 1017,9 hPa 0,0 l/m 0 min 0 min 165 W/m 12,9 km/h (3 Bft) 93,62 %
22.05.2020 09:50 19,5 C 20,0 C 18,9 C 81 % 1017,9 hPa 0,0 l/m 0 min 0 min 172 W/m 19,3 km/h (3 Bft) 95,74 %
22.05.2020 09:52 19,6 C 20,0 C 18,9 C 81 % 1017,9 hPa 0,0 l/m 0 min 0 min 177 W/m 6,4 km/h (2 Bft) 95,74 %
22.05.2020 09:54 19,6 C 20,0 C 18,9 C 81 % 1017,9 hPa 0,0 l/m 0 min 0 min 179 W/m 12,9 km/h (3 Bft) 95,74 %
22.05.2020 09:56 19,6 C 20,0 C 19,4 C 80 % 1017,9 hPa 0,0 l/m 0 min 0 min 175 W/m 6,4 km/h (2 Bft) 95,74 %
22.05.2020 09:58 19,7 C 20,0 C 19,4 C 80 % 1017,8 hPa 0,0 l/m 0 min 0 min 169 W/m 12,9 km/h (3 Bft) 95,65 %
22.05.2020 10:00 19,7 C 20,6 C 19,4 C 80 % 1017,9 hPa 0,0 l/m 0 min 0 min 163 W/m 12,9 km/h (3 Bft) 93,62 %
22.05.2020 10:02 19,7 C 20,6 C 19,4 C 80 % 1017,9 hPa 0,0 l/m 0 min 0 min 160 W/m 6,4 km/h (2 Bft) 95,74 %
22.05.2020 10:04 19,8 C 20,6 C 19,4 C 80 % 1017,8 hPa 0,0 l/m 0 min 0 min 159 W/m 12,9 km/h (3 Bft) 97,83 %
22.05.2020 10:06 19,8 C 20,6 C 19,4 C 80 % 1017,9 hPa 0,0 l/m 0 min 0 min 164 W/m 16,1 km/h (3 Bft) 93,62 %
22.05.2020 10:08 19,8 C 20,6 C 19,4 C 80 % 1017,8 hPa 0,0 l/m 0 min 0 min 170 W/m 12,9 km/h (3 Bft) 97,87 %
22.05.2020 10:10 19,9 C 20,6 C 19,4 C 80 % 1017,8 hPa 0,0 l/m 0 min 0 min 171 W/m 12,9 km/h (3 Bft) 97,83 %
22.05.2020 10:12 19,9 C 20,6 C 19,4 C 80 % 1017,7 hPa 0,0 l/m 0 min 0 min 165 W/m 12,9 km/h (3 Bft) 100,00 %
22.05.2020 10:14 20,0 C 20,6 C 19,4 C 80 % 1017,7 hPa 0,0 l/m 0 min 0 min 159 W/m 6,4 km/h (2 Bft) 95,74 %
22.05.2020 10:16 20,0 C 20,6 C 19,4 C 80 % 1017,7 hPa 0,0 l/m 0 min 0 min 150 W/m 16,1 km/h (3 Bft) 100,00 %
22.05.2020 10:18 20,1 C 20,6 C 19,4 C 79 % 1017,7 hPa 0,0 l/m 0 min 0 min 146 W/m 12,9 km/h (3 Bft) 100,00 %
22.05.2020 10:20 20,1 C 20,6 C 19,4 C 79 % 1017,6 hPa 0,0 l/m 0 min 0 min 143 W/m 16,1 km/h (3 Bft) 100,00 %
22.05.2020 10:22 20,1 C 20,6 C 19,4 C 79 % 1017,6 hPa 0,0 l/m 0 min 0 min 144 W/m 6,4 km/h (2 Bft) 100,00 %
22.05.2020 10:24 20,2 C 20,6 C 19,4 C 79 % 1017,6 hPa 0,0 l/m 0 min 0 min 143 W/m 3,2 km/h (1 Bft) 100,00 %
22.05.2020 10:26 20,2 C 20,6 C 19,4 C 79 % 1017,7 hPa 0,0 l/m 0 min 0 min 142 W/m 12,9 km/h (3 Bft) 97,87 %
22.05.2020 10:28 20,2 C 20,6 C 19,4 C 79 % 1017,6 hPa 0,0 l/m 0 min 0 min 141 W/m 12,9 km/h (3 Bft) 100,00 %
22.05.2020 10:30 20,3 C 20,6 C 19,4 C 79 % 1017,6 hPa 0,0 l/m 0 min 0 min 139 W/m 16,1 km/h (3 Bft) 100,00 %
22.05.2020 10:32 20,3 C 20,6 C 19,4 C 79 % 1017,7 hPa 0,0 l/m 0 min 0 min 140 W/m 12,9 km/h (3 Bft) 97,83 %
22.05.2020 10:34 20,3 C 20,6 C 19,4 C 79 % 1017,7 hPa 0,0 l/m 0 min 0 min 142 W/m 12,9 km/h (3 Bft) 100,00 %
22.05.2020 10:36 20,4 C 20,6 C 19,4 C 79 % 1017,6 hPa 0,0 l/m 0 min 0 min 146 W/m 19,3 km/h (3 Bft) 100,00 %
22.05.2020 10:38 20,4 C 20,6 C 19,4 C 79 % 1017,6 hPa 0,0 l/m 0 min 0 min 149 W/m 16,1 km/h (3 Bft) 97,87 %
22.05.2020 10:40 20,4 C 20,6 C 19,4 C 79 % 1017,6 hPa 0,0 l/m 0 min 0 min 151 W/m 16,1 km/h (3 Bft) 100,00 %
22.05.2020 10:42 20,4 C 20,6 C 19,4 C 78 % 1017,5 hPa 0,0 l/m 0 min 0 min 154 W/m 12,9 km/h (3 Bft) 100,00 %
22.05.2020 10:44 20,5 C 20,6 C 19,4 C 79 % 1017,4 hPa 0,0 l/m 0 min 0 min 158 W/m 12,9 km/h (3 Bft) 100,00 %
22.05.2020 10:46 20,5 C 20,6 C 19,4 C 78 % 1017,4 hPa 0,0 l/m 0 min 0 min 163 W/m 12,9 km/h (3 Bft) 100,00 %
22.05.2020 10:48 20,6 C 21,1 C 19,4 C 79 % 1017,5 hPa 0,0 l/m 0 min 0 min 167 W/m 12,9 km/h (3 Bft) 97,87 %
22.05.2020 10:50 20,6 C 21,1 C 20,0 C 79 % 1017,4 hPa 0,0 l/m 0 min 0 min 167 W/m 12,9 km/h (3 Bft) 97,87 %
22.05.2020 10:52 20,6 C 21,1 C 20,0 C 79 % 1017,3 hPa 0,0 l/m 0 min 0 min 164 W/m 12,9 km/h (3 Bft) 100,00 %
22.05.2020 10:54 20,7 C 21,1 C 20,0 C 79 % 1017,2 hPa 0,0 l/m 0 min 0 min 160 W/m 12,9 km/h (3 Bft) 100,00 %
22.05.2020 10:56 20,7 C 20,6 C 20,0 C 79 % 1017,2 hPa 0,0 l/m 0 min 0 min 159 W/m 19,3 km/h (3 Bft) 100,00 %
22.05.2020 10:58 20,7 C 21,1 C 20,0 C 79 % 1017,2 hPa 0,0 l/m 0 min 0 min 153 W/m 12,9 km/h (3 Bft) 97,87 %
22.05.2020 11:00 20,7 C 21,1 C 20,0 C 79 % 1017,1 hPa 0,0 l/m 0 min 0 min 149 W/m 16,1 km/h (3 Bft) 100,00 %
22.05.2020 11:02 20,8 C 21,1 C 20,0 C 79 % 1017,3 hPa 0,0 l/m 0 min 0 min 149 W/m 12,9 km/h (3 Bft) 100,00 %
22.05.2020 11:04 20,8 C 21,1 C 20,0 C 79 % 1017,4 hPa 0,0 l/m 0 min 0 min 155 W/m 16,1 km/h (3 Bft) 100,00 %
22.05.2020 11:06 20,8 C 21,1 C 20,0 C 79 % 1017,4 hPa 0,0 l/m 0 min 0 min 167 W/m 6,4 km/h (2 Bft) 100,00 %
22.05.2020 11:08 20,9 C 21,7 C 20,0 C 79 % 1017,3 hPa 0,0 l/m 0 min 0 min 183 W/m 3,2 km/h (1 Bft) 100,00 %
22.05.2020 11:10 20,9 C 21,7 C 20,0 C 79 % 1017,3 hPa 0,0 l/m 0 min 0 min 198 W/m 3,2 km/h (1 Bft) 100,00 %
22.05.2020 11:12 20,9 C 22,2 C 20,6 C 79 % 1017,3 hPa 0,0 l/m 0 min 0 min 207 W/m 3,2 km/h (1 Bft) 100,00 %
22.05.2020 11:14 21,0 C 22,2 C 20,6 C 79 % 1017,3 hPa 0,0 l/m 0 min 0 min 218 W/m 6,4 km/h (2 Bft) 100,00 %
22.05.2020 11:16 21,1 C 22,2 C 20,6 C 79 % 1017,2 hPa 0,0 l/m 0 min 0 min 231 W/m 12,9 km/h (3 Bft) 100,00 %
22.05.2020 11:18 21,1 C 22,2 C 20,6 C 79 % 1017,2 hPa 0,0 l/m 0 min 0 min 238 W/m 9,7 km/h (2 Bft) 100,00 %
22.05.2020 11:20 21,1 C 22,2 C 21,1 C 79 % 1017,2 hPa 0,0 l/m 0 min 0 min 236 W/m 12,9 km/h (3 Bft) 100,00 %
22.05.2020 11:22 21,2 C 22,2 C 21,1 C 78 % 1017,2 hPa 0,0 l/m 0 min 0 min 226 W/m 6,4 km/h (2 Bft) 100,00 %
22.05.2020 11:24 21,2 C 22,2 C 21,1 C 78 % 1017,2 hPa 0,0 l/m 0 min 0 min 216 W/m 12,9 km/h (3 Bft) 97,87 %
22.05.2020 11:26 21,3 C 22,2 C 21,1 C 78 % 1017,3 hPa 0,0 l/m 0 min 0 min 206 W/m 19,3 km/h (3 Bft) 100,00 %
22.05.2020 11:28 21,4 C 22,2 C 21,1 C 78 % 1017,3 hPa 0,0 l/m 0 min 0 min 196 W/m 12,9 km/h (3 Bft) 97,87 %
22.05.2020 11:30 21,4 C 22,2 C 21,1 C 78 % 1017,3 hPa 0,0 l/m 0 min 0 min 198 W/m 6,4 km/h (2 Bft) 100,00 %
22.05.2020 11:32 21,5 C 22,2 C 21,1 C 77 % 1017,3 hPa 0,0 l/m 0 min 0 min 205 W/m 12,9 km/h (3 Bft) 95,74 %
22.05.2020 11:34 21,6 C 22,2 C 21,1 C 77 % 1017,3 hPa 0,0 l/m 0 min 0 min 223 W/m 16,1 km/h (3 Bft) 97,87 %
22.05.2020 11:36 21,6 C 22,8 C 21,1 C 77 % 1017,3 hPa 0,0 l/m 0 min 0 min 256 W/m 12,9 km/h (3 Bft) 100,00 %
22.05.2020 11:38 21,6 C 22,8 C 21,1 C 77 % 1017,3 hPa 0,0 l/m 0 min 0 min 285 W/m 16,1 km/h (3 Bft) 97,87 %
22.05.2020 11:40 21,7 C 23,3 C 21,7 C 77 % 1017,3 hPa 0,0 l/m 0 min 0 min 291 W/m 16,1 km/h (3 Bft) 97,87 %
22.05.2020 11:42 21,8 C 23,3 C 21,7 C 77 % 1017,2 hPa 0,0 l/m 0 min 0 min 307 W/m 3,2 km/h (1 Bft) 97,83 %
22.05.2020 11:44 21,8 C 23,9 C 21,7 C 77 % 1017,3 hPa 0,0 l/m 0 min 0 min 327 W/m 12,9 km/h (3 Bft) 100,00 %
22.05.2020 11:46 21,9 C 23,9 C 22,2 C 77 % 1017,2 hPa 0,0 l/m 0 min 0 min 328 W/m 16,1 km/h (3 Bft) 100,00 %
22.05.2020 11:48 22,0 C 23,3 C 21,7 C 77 % 1017,2 hPa 0,0 l/m 0 min 0 min 318 W/m 19,3 km/h (3 Bft) 97,87 %
22.05.2020 11:50 22,1 C 23,9 C 22,2 C 76 % 1017,3 hPa 0,0 l/m 0 min 0 min 342 W/m 19,3 km/h (3 Bft) 97,87 %
22.05.2020 11:52 22,1 C 23,9 C 22,2 C 76 % 1017,3 hPa 0,0 l/m 0 min 0 min 361 W/m 16,1 km/h (3 Bft) 97,87 %
22.05.2020 11:54 22,2 C 23,9 C 22,2 C 76 % 1017,3 hPa 0,0 l/m 0 min 0 min 317 W/m 22,5 km/h (4 Bft) 97,83 %
22.05.2020 11:56 22,3 C 23,9 C 22,2 C 76 % 1017,3 hPa 0,0 l/m 0 min 0 min 310 W/m 19,3 km/h (3 Bft) 97,87 %
22.05.2020 11:58 22,4 C 24,4 C 22,2 C 76 % 1017,3 hPa 0,0 l/m 0 min 0 min 331 W/m 12,9 km/h (3 Bft) 97,87 %
22.05.2020 12:00 22,5 C 25,0 C 22,8 C 77 % 1017,3 hPa 0,0 l/m 0 min 0 min 356 W/m 12,9 km/h (3 Bft) 95,74 %
22.05.2020 12:02 22,6 C 25,0 C 22,8 C 76 % 1017,3 hPa 0,0 l/m 0 min 0 min 370 W/m 16,1 km/h (3 Bft) 95,74 %
22.05.2020 12:04 22,7 C 25,0 C 23,3 C 76 % 1017,3 hPa 0,0 l/m 2 min 0 min 407 W/m 12,9 km/h (3 Bft) 91,49 %
22.05.2020 12:08 22,8 C 26,7 C 23,9 C 76 % 1017,3 hPa 0,0 l/m 4 min 0 min 495 W/m 12,9 km/h (3 Bft) 95,70 %
22.05.2020 12:10 23,0 C 27,8 C 24,4 C 76 % 1017,2 hPa 0,0 l/m 2 min 0 min 573 W/m 12,9 km/h (3 Bft) 95,74 %
22.05.2020 12:12 23,1 C 28,3 C 24,4 C 76 % 1017,2 hPa 0,0 l/m 2 min 0 min 712 W/m 16,1 km/h (3 Bft) 95,74 %
22.05.2020 12:14 23,3 C 28,3 C 24,4 C 75 % 1017,2 hPa 0,0 l/m 2 min 0 min 641 W/m 16,1 km/h (3 Bft) 95,74 %
22.05.2020 12:16 23,4 C 29,4 C 25,0 C 75 % 1017,2 hPa 0,0 l/m 2 min 0 min 749 W/m 12,9 km/h (3 Bft) 91,49 %
22.05.2020 12:18 23,6 C 28,3 C 25,0 C 74 % 1017,1 hPa 0,0 l/m 2 min 0 min 717 W/m 19,3 km/h (3 Bft) 93,48 %
22.05.2020 12:20 23,8 C 27,8 C 25,0 C 74 % 1017,1 hPa 0,0 l/m 2 min 0 min 696 W/m 22,5 km/h (4 Bft) 91,49 %
22.05.2020 12:22 24,0 C 27,2 C 24,4 C 73 % 1017,1 hPa 0,0 l/m 2 min 0 min 476 W/m 22,5 km/h (4 Bft) 89,36 %
22.05.2020 12:24 24,1 C 27,2 C 25,0 C 73 % 1017,1 hPa 0,0 l/m 2 min 0 min 423 W/m 6,4 km/h (2 Bft) 93,62 %
22.05.2020 12:26 24,2 C 27,2 C 25,0 C 73 % 1017,1 hPa 0,0 l/m 0 min 0 min 386 W/m 12,9 km/h (3 Bft) 93,62 %
22.05.2020 12:28 24,3 C 27,2 C 25,0 C 72 % 1017,1 hPa 0,0 l/m 0 min 0 min 399 W/m 22,5 km/h (4 Bft) 91,49 %
22.05.2020 12:30 24,4 C 27,2 C 25,0 C 72 % 1017,1 hPa 0,0 l/m 2 min 0 min 414 W/m 16,1 km/h (3 Bft) 93,48 %
22.05.2020 12:32 24,6 C 27,2 C 25,0 C 71 % 1017,1 hPa 0,0 l/m 2 min 0 min 483 W/m 16,1 km/h (3 Bft) 93,62 %
22.05.2020 12:34 24,7 C 27,8 C 25,6 C 71 % 1017,0 hPa 0,0 l/m 2 min 0 min 579 W/m 16,1 km/h (3 Bft) 93,62 %
22.05.2020 12:36 24,8 C 28,3 C 25,6 C 71 % 1017,0 hPa 0,0 l/m 2 min 0 min 506 W/m 19,3 km/h (3 Bft) 91,49 %
22.05.2020 12:38 24,9 C 27,8 C 25,6 C 69 % 1016,9 hPa 0,0 l/m 2 min 0 min 451 W/m 19,3 km/h (3 Bft) 91,49 %
22.05.2020 12:40 25,1 C 27,8 C 25,6 C 69 % 1016,9 hPa 0,0 l/m 2 min 0 min 431 W/m 12,9 km/h (3 Bft) 93,62 %
22.05.2020 12:42 25,2 C 27,8 C 25,6 C 69 % 1016,9 hPa 0,0 l/m 2 min 0 min 430 W/m 16,1 km/h (3 Bft) 95,65 %
22.05.2020 12:44 25,2 C 27,2 C 25,6 C 69 % 1016,8 hPa 0,0 l/m 0 min 0 min 391 W/m 16,1 km/h (3 Bft) 97,87 %
22.05.2020 12:46 25,3 C 27,2 C 25,6 C 68 % 1016,9 hPa 0,0 l/m 0 min 0 min 382 W/m 16,1 km/h (3 Bft) 95,74 %
22.05.2020 12:48 25,4 C 26,7 C 25,6 C 67 % 1016,9 hPa 0,0 l/m 0 min 0 min 354 W/m 19,3 km/h (3 Bft) 95,74 %
22.05.2020 12:50 25,5 C 26,7 C 25,6 C 67 % 1016,8 hPa 0,0 l/m 0 min 0 min 324 W/m 19,3 km/h (3 Bft) 95,74 %
22.05.2020 12:52 25,6 C 26,7 C 25,0 C 66 % 1016,8 hPa 0,0 l/m 0 min 0 min 294 W/m 16,1 km/h (3 Bft) 95,65 %
22.05.2020 12:54 25,6 C 26,7 C 25,0 C 66 % 1016,8 hPa 0,0 l/m 0 min 0 min 279 W/m 12,9 km/h (3 Bft) 97,87 %
22.05.2020 12:56 25,6 C 26,7 C 25,0 C 66 % 1016,8 hPa 0,0 l/m 0 min 0 min 287 W/m 16,1 km/h (3 Bft) 97,87 %
22.05.2020 12:58 25,7 C 26,7 C 25,0 C 66 % 1016,8 hPa 0,0 l/m 0 min 0 min 298 W/m 12,9 km/h (3 Bft) 97,87 %
22.05.2020 13:00 25,7 C 26,7 C 25,0 C 66 % 1016,8 hPa 0,0 l/m 0 min 0 min 311 W/m 16,1 km/h (3 Bft) 97,87 %
22.05.2020 13:02 25,8 C 26,7 C 25,0 C 66 % 1016,8 hPa 0,0 l/m 0 min 0 min 338 W/m 12,9 km/h (3 Bft) 97,87 %
22.05.2020 13:04 25,8 C 27,2 C 25,0 C 66 % 1016,8 hPa 0,0 l/m 0 min 0 min 350 W/m 12,9 km/h (3 Bft) 97,83 %
22.05.2020 13:06 25,8 C 27,2 C 25,6 C 66 % 1016,8 hPa 0,0 l/m 0 min 0 min 338 W/m 16,1 km/h (3 Bft) 97,87 %
22.05.2020 13:08 25,9 C 26,7 C 25,0 C 65 % 1016,8 hPa 0,0 l/m 0 min 0 min 307 W/m 29,0 km/h (5 Bft) 100,00 %
22.05.2020 13:10 25,9 C 26,7 C 25,0 C 65 % 1016,8 hPa 0,0 l/m 0 min 0 min 277 W/m 6,4 km/h (2 Bft) 100,00 %
22.05.2020 13:12 25,9 C 26,7 C 25,0 C 66 % 1016,8 hPa 0,0 l/m 0 min 0 min 272 W/m 3,2 km/h (1 Bft) 97,87 %
22.05.2020 13:14 26,0 C 26,7 C 25,0 C 66 % 1016,8 hPa 0,0 l/m 0 min 0 min 279 W/m 16,1 km/h (3 Bft) 100,00 %
22.05.2020 13:16 26,1 C 27,2 C 25,6 C 66 % 1016,7 hPa 0,0 l/m 0 min 0 min 299 W/m 12,9 km/h (3 Bft) 100,00 %
22.05.2020 13:18 26,1 C 27,2 C 25,6 C 66 % 1016,8 hPa 0,0 l/m 0 min 0 min 329 W/m 16,1 km/h (3 Bft) 100,00 %
22.05.2020 13:20 26,1 C 27,2 C 25,6 C 65 % 1016,8 hPa 0,0 l/m 0 min 0 min 352 W/m 16,1 km/h (3 Bft) 97,87 %
22.05.2020 13:22 26,2 C 27,8 C 25,6 C 65 % 1016,7 hPa 0,0 l/m 0 min 0 min 402 W/m 12,9 km/h (3 Bft) 97,87 %
22.05.2020 13:24 26,2 C 28,3 C 26,1 C 65 % 1016,7 hPa 0,0 l/m 2 min 0 min 453 W/m 16,1 km/h (3 Bft) 95,74 %
22.05.2020 13:26 26,3 C 28,3 C 26,1 C 64 % 1016,7 hPa 0,0 l/m 2 min 0 min 508 W/m 25,7 km/h (4 Bft) 100,00 %
22.05.2020 13:28 26,3 C 28,9 C 26,1 C 65 % 1016,7 hPa 0,0 l/m 2 min 0 min 483 W/m 19,3 km/h (3 Bft) 100,00 %
22.05.2020 13:30 26,4 C 28,3 C 26,7 C 64 % 1016,7 hPa 0,0 l/m 2 min 0 min 427 W/m 22,5 km/h (4 Bft) 100,00 %
22.05.2020 13:32 26,5 C 27,8 C 26,1 C 62 % 1016,6 hPa 0,0 l/m 0 min 0 min 397 W/m 29,0 km/h (5 Bft) 100,00 %
22.05.2020 13:34 26,6 C 27,8 C 26,1 C 62 % 1016,6 hPa 0,0 l/m 0 min 0 min 400 W/m 16,1 km/h (3 Bft) 100,00 %
22.05.2020 13:36 26,6 C 27,8 C 26,7 C 62 % 1016,6 hPa 0,0 l/m 2 min 0 min 421 W/m 22,5 km/h (4 Bft) 100,00 %
22.05.2020 13:38 26,7 C 28,3 C 26,7 C 62 % 1016,6 hPa 0,0 l/m 2 min 0 min 441 W/m 19,3 km/h (3 Bft) 100,00 %
22.05.2020 13:40 26,7 C 28,3 C 26,7 C 61 % 1016,6 hPa 0,0 l/m 2 min 0 min 521 W/m 29,0 km/h (5 Bft) 100,00 %
22.05.2020 13:42 26,8 C 28,9 C 27,2 C 60 % 1016,7 hPa 0,0 l/m 2 min 0 min 614 W/m 35,4 km/h (5 Bft) 100,00 %
22.05.2020 13:44 26,8 C 28,9 C 27,8 C 60 % 1016,5 hPa 0,0 l/m 2 min 0 min 628 W/m 29,0 km/h (5 Bft) 100,00 %
22.05.2020 13:46 26,9 C 30,0 C 27,8 C 60 % 1016,5 hPa 0,0 l/m 2 min 0 min 686 W/m 22,5 km/h (4 Bft) 100,00 %
22.05.2020 13:48 27,1 C 29,4 C 28,3 C 59 % 1016,6 hPa 0,0 l/m 2 min 0 min 738 W/m 38,6 km/h (5 Bft) 97,83 %
22.05.2020 13:50 27,1 C 30,0 C 28,3 C 59 % 1016,4 hPa 0,0 l/m 2 min 0 min 655 W/m 19,3 km/h (3 Bft) 100,00 %
22.05.2020 13:52 27,2 C 28,9 C 27,8 C 58 % 1016,6 hPa 0,0 l/m 2 min 0 min 511 W/m 32,2 km/h (5 Bft) 100,00 %
22.05.2020 13:54 27,3 C 28,9 C 27,8 C 58 % 1016,5 hPa 0,0 l/m 2 min 0 min 461 W/m 29,0 km/h (5 Bft) 100,00 %
22.05.2020 13:56 27,3 C 29,4 C 28,9 C 60 % 1016,4 hPa 0,0 l/m 2 min 0 min 589 W/m 19,3 km/h (3 Bft) 97,87 %
22.05.2020 13:58 27,4 C 29,4 C 28,9 C 58 % 1016,5 hPa 0,0 l/m 2 min 0 min 621 W/m 32,2 km/h (5 Bft) 100,00 %
22.05.2020 14:00 27,4 C 30,0 C 29,4 C 59 % 1016,4 hPa 0,0 l/m 2 min 0 min 647 W/m 25,7 km/h (4 Bft) 100,00 %
22.05.2020 14:02 27,6 C 30,6 C 30,0 C 59 % 1016,4 hPa 0,0 l/m 2 min 0 min 678 W/m 22,5 km/h (4 Bft) 97,92 %
22.05.2020 14:04 27,6 C 31,1 C 30,6 C 58 % 1016,3 hPa 0,0 l/m 2 min 0 min 718 W/m 19,3 km/h (3 Bft) 100,00 %
22.05.2020 14:06 27,7 C 30,6 C 30,0 C 57 % 1016,2 hPa 0,0 l/m 2 min 0 min 645 W/m 22,5 km/h (4 Bft) 100,00 %
22.05.2020 14:08 27,7 C 29,4 C 29,4 C 57 % 1016,1 hPa 0,0 l/m 2 min 0 min 477 W/m 29,0 km/h (5 Bft) 100,00 %
22.05.2020 14:10 27,8 C 28,9 C 28,3 C 57 % 1016,2 hPa 0,0 l/m 2 min 0 min 421 W/m 29,0 km/h (5 Bft) 100,00 %
22.05.2020 14:12 27,8 C 28,9 C 28,3 C 57 % 1016,3 hPa 0,0 l/m 2 min 0 min 459 W/m 22,5 km/h (4 Bft) 100,00 %
22.05.2020 14:14 27,8 C 28,9 C 28,3 C 57 % 1016,4 hPa 0,0 l/m 2 min 0 min 649 W/m 41,8 km/h (6 Bft) 100,00 %
22.05.2020 14:16 27,9 C 29,4 C 28,9 C 56 % 1016,2 hPa 0,0 l/m 2 min 0 min 668 W/m 32,2 km/h (5 Bft) 100,00 %
22.05.2020 14:18 27,9 C 29,4 C 28,9 C 55 % 1016,3 hPa 0,0 l/m 2 min 0 min 773 W/m 38,6 km/h (5 Bft) 100,00 %
22.05.2020 14:20 27,9 C 30,0 C 28,9 C 56 % 1016,3 hPa 0,0 l/m 2 min 0 min 760 W/m 25,7 km/h (4 Bft) 100,00 %
22.05.2020 14:22 27,9 C 30,0 C 28,9 C 56 % 1016,2 hPa 0,0 l/m 2 min 0 min 678 W/m 35,4 km/h (5 Bft) 97,87 %
22.05.2020 14:24 28,0 C 30,0 C 28,9 C 56 % 1016,2 hPa 0,0 l/m 2 min 0 min 623 W/m 29,0 km/h (5 Bft) 100,00 %
22.05.2020 14:26 28,1 C 30,6 C 28,9 C 56 % 1016,3 hPa 0,0 l/m 2 min 0 min 588 W/m 38,6 km/h (5 Bft) 100,00 %
22.05.2020 14:28 28,1 C 30,0 C 28,3 C 55 % 1016,4 hPa 0,0 l/m 2 min 0 min 646 W/m 35,4 km/h (5 Bft) 100,00 %
22.05.2020 14:30 28,1 C 29,4 C 28,3 C 55 % 1016,2 hPa 0,0 l/m 2 min 0 min 645 W/m 29,0 km/h (5 Bft) 97,87 %
22.05.2020 14:32 28,1 C 30,0 C 28,3 C 56 % 1016,3 hPa 0,0 l/m 2 min 0 min 657 W/m 19,3 km/h (3 Bft) 95,74 %
22.05.2020 14:34 28,2 C 30,0 C 28,3 C 55 % 1016,2 hPa 0,0 l/m 2 min 0 min 655 W/m 22,5 km/h (4 Bft) 97,83 %
22.05.2020 14:36 28,2 C 30,0 C 28,3 C 56 % 1016,2 hPa 0,0 l/m 2 min 0 min 560 W/m 16,1 km/h (3 Bft) 93,62 %
22.05.2020 14:38 28,2 C 29,4 C 28,3 C 55 % 1016,3 hPa 0,0 l/m 2 min 0 min 480 W/m 25,7 km/h (4 Bft) 95,74 %
22.05.2020 14:40 28,2 C 28,9 C 28,3 C 55 % 1016,2 hPa 0,0 l/m 0 min 0 min 396 W/m 19,3 km/h (3 Bft) 95,74 %
22.05.2020 14:42 28,2 C 28,9 C 28,3 C 56 % 1016,2 hPa 0,0 l/m 0 min 0 min 396 W/m 19,3 km/h (3 Bft) 97,87 %
22.05.2020 14:44 28,2 C 28,9 C 28,3 C 56 % 1016,2 hPa 0,0 l/m 0 min 0 min 381 W/m 22,5 km/h (4 Bft) 97,87 %
22.05.2020 14:46 28,2 C 28,9 C 27,8 C 55 % 1016,2 hPa 0,0 l/m 0 min 0 min 401 W/m 19,3 km/h (3 Bft) 95,65 %
22.05.2020 14:48 28,2 C 28,9 C 28,3 C 56 % 1016,2 hPa 0,0 l/m 2 min 0 min 415 W/m 19,3 km/h (3 Bft) 95,74 %
22.05.2020 14:50 28,2 C 28,9 C 28,3 C 56 % 1016,3 hPa 0,0 l/m 0 min 0 min 389 W/m 16,1 km/h (3 Bft) 97,87 %
22.05.2020 14:52 28,2 C 28,9 C 28,3 C 56 % 1016,2 hPa 0,0 l/m 0 min 0 min 363 W/m 12,9 km/h (3 Bft) 97,87 %
22.05.2020 14:54 28,2 C 28,9 C 28,3 C 56 % 1016,3 hPa 0,0 l/m 0 min 0 min 344 W/m 22,5 km/h (4 Bft) 95,74 %
22.05.2020 14:56 28,1 C 28,3 C 27,8 C 56 % 1016,2 hPa 0,0 l/m 0 min 0 min 337 W/m 25,7 km/h (4 Bft) 97,87 %
22.05.2020 14:58 28,1 C 27,8 C 27,8 C 56 % 1016,3 hPa 0,0 l/m 0 min 0 min 381 W/m 29,0 km/h (5 Bft) 95,65 %
22.05.2020 15:00 28,1 C 27,8 C 27,2 C 56 % 1016,4 hPa 0,0 l/m 2 min 0 min 423 W/m 38,6 km/h (5 Bft) 97,87 %
22.05.2020 15:02 28,0 C 28,3 C 27,2 C 56 % 1016,3 hPa 0,0 l/m 2 min 0 min 448 W/m 29,0 km/h (5 Bft) 95,83 %
22.05.2020 15:04 27,9 C 28,9 C 27,8 C 56 % 1016,3 hPa 0,0 l/m 2 min 0 min 613 W/m 25,7 km/h (4 Bft) 95,74 %
22.05.2020 15:06 27,9 C 28,9 C 27,8 C 57 % 1016,4 hPa 0,0 l/m 2 min 0 min 568 W/m 32,2 km/h (5 Bft) 95,74 %
22.05.2020 15:08 27,9 C 28,3 C 27,8 C 57 % 1016,4 hPa 0,0 l/m 2 min 0 min 414 W/m 19,3 km/h (3 Bft) 95,74 %
22.05.2020 15:10 27,9 C 28,3 C 27,8 C 57 % 1016,3 hPa 0,0 l/m 0 min 0 min 325 W/m 22,5 km/h (4 Bft) 95,65 %
22.05.2020 15:12 27,9 C 27,8 C 27,2 C 57 % 1016,4 hPa 0,0 l/m 0 min 0 min 295 W/m 32,2 km/h (5 Bft) 95,74 %
22.05.2020 15:14 27,9 C 27,8 C 27,2 C 57 % 1016,3 hPa 0,0 l/m 0 min 0 min 271 W/m 12,9 km/h (3 Bft) 95,74 %
22.05.2020 15:16 27,8 C 27,8 C 27,2 C 57 % 1016,4 hPa 0,0 l/m 0 min 0 min 268 W/m 29,0 km/h (5 Bft) 97,87 %
22.05.2020 15:18 27,8 C 27,2 C 27,2 C 57 % 1016,3 hPa 0,0 l/m 0 min 0 min 275 W/m 29,0 km/h (5 Bft) 97,87 %
22.05.2020 15:20 27,7 C 27,8 C 27,2 C 58 % 1016,3 hPa 0,0 l/m 0 min 0 min 340 W/m 12,9 km/h (3 Bft) 97,83 %
22.05.2020 15:22 27,7 C 27,8 C 27,2 C 58 % 1016,4 hPa 0,0 l/m 0 min 0 min 351 W/m 22,5 km/h (4 Bft) 95,74 %
22.05.2020 15:24 27,7 C 27,8 C 27,2 C 58 % 1016,4 hPa 0,0 l/m 0 min 0 min 310 W/m 25,7 km/h (4 Bft) 95,74 %
22.05.2020 15:26 27,6 C 27,2 C 27,2 C 58 % 1016,3 hPa 0,0 l/m 0 min 0 min 276 W/m 16,1 km/h (3 Bft) 97,87 %
22.05.2020 15:28 27,6 C 27,2 C 27,2 C 58 % 1016,3 hPa 0,0 l/m 0 min 0 min 238 W/m 16,1 km/h (3 Bft) 97,87 %
22.05.2020 15:30 27,6 C 27,2 C 26,7 C 59 % 1016,4 hPa 0,0 l/m 0 min 0 min 235 W/m 19,3 km/h (3 Bft) 95,74 %
22.05.2020 15:32 27,6 C 27,2 C 26,7 C 58 % 1016,4 hPa 0,0 l/m 0 min 0 min 265 W/m 32,2 km/h (5 Bft) 95,74 %
22.05.2020 15:34 27,5 C 27,2 C 26,7 C 58 % 1016,4 hPa 0,0 l/m 0 min 0 min 291 W/m 22,5 km/h (4 Bft) 95,65 %
22.05.2020 15:36 27,5 C 27,2 C 26,7 C 59 % 1016,4 hPa 0,0 l/m 0 min 0 min 302 W/m 25,7 km/h (4 Bft) 95,74 %
22.05.2020 15:38 27,4 C 27,2 C 26,7 C 59 % 1016,4 hPa 0,0 l/m 0 min 0 min 315 W/m 25,7 km/h (4 Bft) 95,74 %
22.05.2020 15:40 27,4 C 27,2 C 26,7 C 59 % 1016,5 hPa 0,0 l/m 0 min 0 min 287 W/m 25,7 km/h (4 Bft) 95,74 %
22.05.2020 15:42 27,4 C 27,2 C 26,7 C 59 % 1016,3 hPa 0,0 l/m 0 min 0 min 255 W/m 19,3 km/h (3 Bft) 95,74 %
22.05.2020 15:44 27,4 C 27,2 C 26,7 C 60 % 1016,3 hPa 0,0 l/m 0 min 0 min 248 W/m 12,9 km/h (3 Bft) 95,65 %
22.05.2020 15:46 27,4 C 27,2 C 26,7 C 60 % 1016,3 hPa 0,0 l/m 0 min 0 min 221 W/m 12,9 km/h (3 Bft) 95,74 %
22.05.2020 15:48 27,4 C 27,2 C 26,7 C 59 % 1016,4 hPa 0,0 l/m 0 min 0 min 222 W/m 25,7 km/h (4 Bft) 95,74 %
22.05.2020 15:50 27,3 C 27,2 C 26,7 C 60 % 1016,4 hPa 0,0 l/m 0 min 0 min 209 W/m 19,3 km/h (3 Bft) 95,74 %
22.05.2020 15:52 27,3 C 26,7 C 26,1 C 60 % 1016,3 hPa 0,0 l/m 0 min 0 min 156 W/m 19,3 km/h (3 Bft) 93,62 %
22.05.2020 15:54 27,2 C 26,7 C 26,1 C 60 % 1016,4 hPa 0,0 l/m 0 min 0 min 137 W/m 25,7 km/h (4 Bft) 95,74 %
22.05.2020 15:56 27,2 C 26,1 C 26,1 C 60 % 1016,4 hPa 0,0 l/m 0 min 0 min 139 W/m 16,1 km/h (3 Bft) 95,65 %
22.05.2020 15:58 27,1 C 25,6 C 25,6 C 60 % 1016,4 hPa 0,0 l/m 0 min 2 min 123 W/m 16,1 km/h (3 Bft) 95,74 %
22.05.2020 16:00 27,1 C 26,1 C 25,6 C 61 % 1016,4 hPa 0,0 l/m 0 min 0 min 116 W/m 12,9 km/h (3 Bft) 97,87 %
22.05.2020 16:02 27,0 C 25,6 C 25,0 C 61 % 1016,4 hPa 0,0 l/m 0 min 0 min 112 W/m 19,3 km/h (3 Bft) 97,92 %
22.05.2020 16:04 26,9 C 26,1 C 25,0 C 59 % 1016,4 hPa 0,0 l/m 0 min 0 min 162 W/m 16,1 km/h (3 Bft) 97,87 %
22.05.2020 16:06 26,8 C 26,1 C 25,6 C 58 % 1016,5 hPa 0,0 l/m 0 min 0 min 281 W/m 19,3 km/h (3 Bft) 97,87 %
22.05.2020 16:08 26,8 C 26,7 C 25,6 C 58 % 1016,5 hPa 0,0 l/m 0 min 0 min 338 W/m 25,7 km/h (4 Bft) 97,83 %
22.05.2020 16:10 26,8 C 27,2 C 26,1 C 55 % 1016,4 hPa 0,0 l/m 2 min 0 min 387 W/m 19,3 km/h (3 Bft) 95,74 %
22.05.2020 16:12 26,8 C 27,2 C 26,1 C 56 % 1016,5 hPa 0,0 l/m 0 min 0 min 316 W/m 12,9 km/h (3 Bft) 97,87 %
22.05.2020 16:14 26,8 C 27,8 C 26,1 C 56 % 1016,4 hPa 0,0 l/m 0 min 0 min 274 W/m 12,9 km/h (3 Bft) 97,87 %
22.05.2020 16:16 26,8 C 27,2 C 26,1 C 55 % 1016,4 hPa 0,0 l/m 0 min 0 min 279 W/m 12,9 km/h (3 Bft) 95,74 %
22.05.2020 16:18 26,8 C 27,2 C 26,1 C 54 % 1016,4 hPa 0,0 l/m 0 min 0 min 296 W/m 12,9 km/h (3 Bft) 97,87 %
22.05.2020 16:20 26,9 C 27,2 C 26,1 C 54 % 1016,5 hPa 0,0 l/m 0 min 0 min 293 W/m 12,9 km/h (3 Bft) 97,83 %
22.05.2020 16:22 26,9 C 27,2 C 26,1 C 54 % 1016,6 hPa 0,0 l/m 0 min 0 min 272 W/m 9,7 km/h (2 Bft) 95,74 %
22.05.2020 16:24 26,9 C 27,2 C 26,1 C 53 % 1016,6 hPa 0,0 l/m 0 min 0 min 250 W/m 16,1 km/h (3 Bft) 100,00 %
22.05.2020 16:26 26,9 C 27,2 C 26,1 C 52 % 1016,6 hPa 0,0 l/m 0 min 0 min 216 W/m 9,7 km/h (2 Bft) 97,87 %
22.05.2020 16:28 26,9 C 26,7 C 26,1 C 53 % 1016,6 hPa 0,0 l/m 0 min 0 min 192 W/m 16,1 km/h (3 Bft) 100,00 %
22.05.2020 16:30 26,9 C 26,7 C 26,1 C 52 % 1016,7 hPa 0,0 l/m 0 min 0 min 188 W/m 16,1 km/h (3 Bft) 100,00 %
22.05.2020 16:32 26,8 C 26,7 C 26,1 C 52 % 1016,8 hPa 0,0 l/m 0 min 0 min 197 W/m 19,3 km/h (3 Bft) 97,92 %
22.05.2020 16:34 26,8 C 26,7 C 26,1 C 52 % 1016,7 hPa 0,0 l/m 0 min 0 min 232 W/m 12,9 km/h (3 Bft) 100,00 %
22.05.2020 16:36 26,8 C 26,7 C 26,1 C 50 % 1016,8 hPa 0,0 l/m 0 min 0 min 311 W/m 12,9 km/h (3 Bft) 97,87 %
22.05.2020 16:38 26,8 C 27,2 C 26,1 C 50 % 1016,7 hPa 0,0 l/m 0 min 0 min 312 W/m 16,1 km/h (3 Bft) 100,00 %
22.05.2020 16:40 26,8 C 27,2 C 26,1 C 51 % 1016,7 hPa 0,0 l/m 2 min 0 min 330 W/m 6,4 km/h (2 Bft) 100,00 %
22.05.2020 16:42 26,8 C 27,2 C 26,1 C 50 % 1016,8 hPa 0,0 l/m 0 min 0 min 301 W/m 12,9 km/h (3 Bft) 100,00 %
22.05.2020 16:44 26,8 C 27,2 C 26,1 C 51 % 1016,9 hPa 0,0 l/m 0 min 0 min 279 W/m 9,7 km/h (2 Bft) 100,00 %
22.05.2020 16:46 26,8 C 26,7 C 26,1 C 51 % 1016,8 hPa 0,0 l/m 0 min 0 min 259 W/m 16,1 km/h (3 Bft) 100,00 %
22.05.2020 16:48 26,8 C 26,7 C 26,1 C 50 % 1016,8 hPa 0,0 l/m 0 min 0 min 214 W/m 19,3 km/h (3 Bft) 100,00 %
22.05.2020 16:50 26,8 C 26,1 C 25,6 C 51 % 1016,8 hPa 0,0 l/m 0 min 0 min 188 W/m 16,1 km/h (3 Bft) 100,00 %
22.05.2020 16:52 26,7 C 26,1 C 25,6 C 51 % 1016,9 hPa 0,0 l/m 0 min 0 min 176 W/m 19,3 km/h (3 Bft) 100,00 %
22.05.2020 16:54 26,7 C 26,1 C 25,6 C 51 % 1017,0 hPa 0,0 l/m 0 min 0 min 146 W/m 35,4 km/h (5 Bft) 100,00 %
22.05.2020 16:56 26,6 C 25,6 C 25,0 C 53 % 1017,0 hPa 0,0 l/m 0 min 2 min 117 W/m 16,1 km/h (3 Bft) 97,87 %
22.05.2020 16:58 26,4 C 24,4 C 24,4 C 55 % 1017,0 hPa 0,0 l/m 0 min 2 min 101 W/m 19,3 km/h (3 Bft) 100,00 %
22.05.2020 17:00 26,3 C 24,4 C 23,3 C 56 % 1017,0 hPa 0,0 l/m 0 min 2 min 86 W/m 16,1 km/h (3 Bft) 100,00 %
22.05.2020 17:02 26,2 C 23,9 C 23,3 C 58 % 1017,0 hPa 0,0 l/m 0 min 2 min 79 W/m 9,7 km/h (2 Bft) 95,74 %
22.05.2020 17:04 26,0 C 23,9 C 22,8 C 57 % 1017,0 hPa 0,0 l/m 0 min 2 min 75 W/m 9,7 km/h (2 Bft) 97,87 %
22.05.2020 17:06 25,8 C 23,9 C 23,3 C 58 % 1017,1 hPa 0,0 l/m 0 min 2 min 75 W/m 6,4 km/h (2 Bft) 97,87 %
22.05.2020 17:08 25,7 C 23,9 C 22,8 C 58 % 1017,2 hPa 0,0 l/m 0 min 2 min 85 W/m 16,1 km/h (3 Bft) 95,74 %
22.05.2020 17:10 25,6 C 23,3 C 22,8 C 59 % 1017,2 hPa 0,0 l/m 0 min 2 min 107 W/m 16,1 km/h (3 Bft) 97,83 %
22.05.2020 17:12 25,3 C 23,3 C 22,8 C 60 % 1017,3 hPa 0,0 l/m 0 min 2 min 122 W/m 12,9 km/h (3 Bft) 95,74 %
22.05.2020 17:14 25,2 C 22,8 C 22,8 C 61 % 1017,3 hPa 0,0 l/m 0 min 2 min 134 W/m 16,1 km/h (3 Bft) 97,87 %
22.05.2020 17:16 25,1 C 22,8 C 22,8 C 63 % 1017,3 hPa 0,0 l/m 0 min 2 min 143 W/m 6,4 km/h (2 Bft) 95,74 %
22.05.2020 17:18 24,9 C 22,8 C 22,2 C 65 % 1017,2 hPa 0,0 l/m 0 min 2 min 138 W/m 9,7 km/h (2 Bft) 97,87 %
22.05.2020 17:20 24,8 C 22,8 C 21,7 C 65 % 1017,3 hPa 0,0 l/m 0 min 2 min 133 W/m 9,7 km/h (2 Bft) 95,74 %
22.05.2020 17:22 24,6 C 22,2 C 22,2 C 65 % 1017,4 hPa 0,0 l/m 0 min 2 min 143 W/m 12,9 km/h (3 Bft) 97,67 %
22.05.2020 17:24 24,4 C 22,2 C 22,2 C 66 % 1017,5 hPa 0,0 l/m 0 min 2 min 136 W/m 16,1 km/h (3 Bft) 97,87 %
22.05.2020 17:26 24,3 C 22,2 C 21,7 C 68 % 1017,5 hPa 0,0 l/m 0 min 2 min 138 W/m 6,4 km/h (2 Bft) 97,87 %
22.05.2020 17:28 24,2 C 22,2 C 21,7 C 69 % 1017,4 hPa 0,0 l/m 0 min 2 min 170 W/m 9,7 km/h (2 Bft) 97,87 %
22.05.2020 17:30 24,1 C 21,1 C 21,7 C 70 % 1017,5 hPa 0,0 l/m 0 min 2 min 205 W/m 9,7 km/h (2 Bft) 97,83 %
22.05.2020 17:32 23,9 C 21,1 C 21,1 C 71 % 1017,6 hPa 0,0 l/m 0 min 2 min 219 W/m 9,7 km/h (2 Bft) 95,74 %
22.05.2020 17:34 23,8 C 21,7 C 21,1 C 72 % 1017,6 hPa 0,0 l/m 0 min 2 min 229 W/m 9,7 km/h (2 Bft) 93,62 %
22.05.2020 17:36 23,6 C 22,2 C 21,1 C 73 % 1017,6 hPa 0,0 l/m 0 min 0 min 244 W/m 9,7 km/h (2 Bft) 95,74 %
22.05.2020 17:38 23,5 C 22,8 C 21,1 C 73 % 1017,6 hPa 0,0 l/m 0 min 0 min 240 W/m 12,9 km/h (3 Bft) 97,87 %
22.05.2020 17:40 23,3 C 22,2 C 21,1 C 72 % 1017,6 hPa 0,0 l/m 0 min 2 min 219 W/m 22,5 km/h (4 Bft) 97,87 %
22.05.2020 17:42 23,2 C 22,2 C 21,1 C 72 % 1017,8 hPa 0,0 l/m 0 min 2 min 205 W/m 16,1 km/h (3 Bft) 97,83 %
22.05.2020 17:44 23,1 C 22,2 C 21,1 C 73 % 1017,9 hPa 0,0 l/m 0 min 2 min 207 W/m 9,7 km/h (2 Bft) 97,87 %
22.05.2020 17:46 23,0 C 22,2 C 21,1 C 73 % 1018,0 hPa 0,0 l/m 0 min 2 min 221 W/m 6,4 km/h (2 Bft) 97,87 %
22.05.2020 17:48 22,9 C 22,2 C 21,1 C 74 % 1018,0 hPa 0,0 l/m 0 min 2 min 220 W/m 9,7 km/h (2 Bft) 100,00 %
22.05.2020 17:50 22,8 C 21,1 C 21,1 C 75 % 1017,9 hPa 0,0 l/m 0 min 2 min 215 W/m 6,4 km/h (2 Bft) 100,00 %
22.05.2020 17:52 22,7 C 21,1 C 21,1 C 75 % 1018,0 hPa 0,0 l/m 0 min 0 min 196 W/m 12,9 km/h (3 Bft) 100,00 %
22.05.2020 17:54 22,6 C 21,7 C 21,1 C 74 % 1017,9 hPa 0,0 l/m 0 min 0 min 178 W/m 19,3 km/h (3 Bft) 100,00 %
22.05.2020 17:56 22,5 C 21,7 C 21,1 C 74 % 1018,0 hPa 0,0 l/m 0 min 0 min 184 W/m 22,5 km/h (4 Bft) 97,87 %
22.05.2020 17:58 22,4 C 21,7 C 21,1 C 73 % 1017,9 hPa 0,0 l/m 0 min 0 min 200 W/m 19,3 km/h (3 Bft) 100,00 %
22.05.2020 18:00 22,4 C 22,2 C 21,1 C 74 % 1018,0 hPa 0,0 l/m 0 min 0 min 187 W/m 9,7 km/h (2 Bft) 97,87 %
22.05.2020 18:02 22,3 C 22,2 C 21,1 C 74 % 1018,0 hPa 0,0 l/m 0 min 0 min 170 W/m 19,3 km/h (3 Bft) 95,74 %
22.05.2020 18:04 22,2 C 21,7 C 21,1 C 74 % 1018,0 hPa 0,0 l/m 0 min 2 min 149 W/m 12,9 km/h (3 Bft) 100,00 %
22.05.2020 18:08 22,1 C 21,7 C 20,6 C 73 % 1018,0 hPa 0,0 l/m 0 min 0 min 139 W/m 12,9 km/h (3 Bft) 98,94 %
22.05.2020 18:10 22,1 C 21,1 C 20,6 C 73 % 1018,0 hPa 0,0 l/m 0 min 0 min 153 W/m 12,9 km/h (3 Bft) 95,74 %
22.05.2020 18:12 21,9 C 21,1 C 20,6 C 72 % 1018,1 hPa 0,0 l/m 0 min 0 min 159 W/m 16,1 km/h (3 Bft) 100,00 %
22.05.2020 18:14 21,9 C 21,7 C 20,6 C 73 % 1018,1 hPa 0,0 l/m 0 min 0 min 159 W/m 12,9 km/h (3 Bft) 100,00 %
22.05.2020 18:16 21,8 C 21,1 C 20,6 C 72 % 1018,1 hPa 0,0 l/m 0 min 0 min 157 W/m 19,3 km/h (3 Bft) 100,00 %
22.05.2020 18:18 21,7 C 21,1 C 20,6 C 73 % 1018,2 hPa 0,0 l/m 0 min 2 min 157 W/m 19,3 km/h (3 Bft) 97,87 %
22.05.2020 18:20 21,7 C 21,1 C 20,6 C 73 % 1018,2 hPa 0,0 l/m 0 min 0 min 150 W/m 16,1 km/h (3 Bft) 97,87 %
22.05.2020 18:22 21,6 C 21,1 C 20,6 C 73 % 1018,3 hPa 0,0 l/m 0 min 2 min 138 W/m 12,9 km/h (3 Bft) 97,87 %
22.05.2020 18:24 21,6 C 20,6 C 20,6 C 73 % 1018,4 hPa 0,0 l/m 0 min 2 min 127 W/m 19,3 km/h (3 Bft) 97,87 %
22.05.2020 18:26 21,5 C 20,6 C 20,6 C 74 % 1018,3 hPa 0,0 l/m 0 min 0 min 120 W/m 9,7 km/h (2 Bft) 97,87 %
22.05.2020 18:28 21,4 C 20,6 C 20,0 C 74 % 1018,5 hPa 0,0 l/m 0 min 0 min 110 W/m 19,3 km/h (3 Bft) 97,83 %
22.05.2020 18:30 21,4 C 20,6 C 20,0 C 74 % 1018,4 hPa 0,0 l/m 0 min 0 min 95 W/m 16,1 km/h (3 Bft) 97,87 %
22.05.2020 18:32 21,3 C 20,0 C 20,0 C 75 % 1018,5 hPa 0,0 l/m 0 min 0 min 83 W/m 12,9 km/h (3 Bft) 97,87 %
22.05.2020 18:34 21,2 C 20,0 C 20,0 C 75 % 1018,5 hPa 0,0 l/m 0 min 0 min 68 W/m 19,3 km/h (3 Bft) 97,87 %
22.05.2020 18:36 21,1 C 19,4 C 19,4 C 75 % 1018,8 hPa 0,0 l/m 0 min 2 min 63 W/m 35,4 km/h (5 Bft) 97,87 %
22.05.2020 18:38 21,0 C 19,4 C 19,4 C 76 % 1018,7 hPa 0,0 l/m 0 min 0 min 66 W/m 29,0 km/h (5 Bft) 97,87 %
22.05.2020 18:40 20,8 C 18,9 C 19,4 C 77 % 1018,8 hPa 0,0 l/m 0 min 2 min 72 W/m 25,7 km/h (4 Bft) 97,83 %
22.05.2020 18:42 20,8 C 18,9 C 18,9 C 78 % 1018,7 hPa 0,0 l/m 0 min 2 min 77 W/m 9,7 km/h (2 Bft) 95,74 %
22.05.2020 18:44 20,7 C 18,9 C 18,9 C 79 % 1018,7 hPa 0,0 l/m 0 min 2 min 84 W/m 9,7 km/h (2 Bft) 95,74 %
22.05.2020 18:46 20,6 C 18,9 C 18,9 C 79 % 1018,7 hPa 0,0 l/m 0 min 2 min 93 W/m 9,7 km/h (2 Bft) 95,74 %
22.05.2020 18:48 20,5 C 18,9 C 18,9 C 80 % 1018,7 hPa 0,0 l/m 0 min 0 min 95 W/m 9,7 km/h (2 Bft) 95,74 %
22.05.2020 18:50 20,4 C 18,9 C 18,9 C 81 % 1018,7 hPa 0,0 l/m 0 min 0 min 93 W/m 9,7 km/h (2 Bft) 95,74 %
22.05.2020 18:52 20,3 C 18,9 C 18,9 C 81 % 1018,7 hPa 0,0 l/m 0 min 0 min 99 W/m 9,7 km/h (2 Bft) 97,83 %
22.05.2020 18:54 20,3 C 18,9 C 18,9 C 81 % 1018,8 hPa 0,0 l/m 0 min 0 min 99 W/m 12,9 km/h (3 Bft) 95,74 %
22.05.2020 18:56 20,2 C 18,9 C 18,9 C 81 % 1018,8 hPa 0,0 l/m 0 min 2 min 87 W/m 9,7 km/h (2 Bft) 95,74 %
22.05.2020 18:58 20,1 C 18,9 C 18,9 C 81 % 1018,9 hPa 0,0 l/m 0 min 2 min 76 W/m 12,9 km/h (3 Bft) 95,74 %
22.05.2020 19:00 20,1 C 18,9 C 18,9 C 82 % 1018,9 hPa 0,0 l/m 0 min 2 min 67 W/m 9,7 km/h (2 Bft) 95,74 %
22.05.2020 19:02 20,0 C 18,3 C 18,3 C 83 % 1019,0 hPa 0,0 l/m 0 min 2 min 62 W/m 19,3 km/h (3 Bft) 95,74 %
22.05.2020 19:04 19,9 C 17,8 C 18,3 C 83 % 1019,0 hPa 0,0 l/m 0 min 2 min 61 W/m 9,7 km/h (2 Bft) 93,48 %
22.05.2020 19:06 19,9 C 17,8 C 18,3 C 84 % 1019,1 hPa 0,0 l/m 0 min 2 min 57 W/m 6,4 km/h (2 Bft) 95,74 %
22.05.2020 19:08 19,8 C 17,8 C 18,3 C 84 % 1019,0 hPa 0,0 l/m 0 min 2 min 49 W/m 12,9 km/h (3 Bft) 91,49 %
22.05.2020 19:10 19,7 C 17,8 C 17,8 C 84 % 1018,9 hPa 0,0 l/m 0 min 2 min 54 W/m 12,9 km/h (3 Bft) 95,74 %
22.05.2020 19:12 19,6 C 17,8 C 17,8 C 84 % 1019,0 hPa 0,0 l/m 0 min 2 min 69 W/m 12,9 km/h (3 Bft) 93,62 %
22.05.2020 19:14 19,4 C 17,8 C 17,8 C 83 % 1019,1 hPa 0,0 l/m 0 min 0 min 79 W/m 16,1 km/h (3 Bft) 93,48 %
22.05.2020 19:16 19,3 C 17,8 C 17,8 C 83 % 1019,2 hPa 0,0 l/m 0 min 0 min 77 W/m 16,1 km/h (3 Bft) 95,74 %
22.05.2020 19:18 19,2 C 17,8 C 17,8 C 83 % 1019,3 hPa 0,0 l/m 0 min 0 min 68 W/m 22,5 km/h (4 Bft) 95,74 %
22.05.2020 19:20 19,1 C 17,8 C 17,8 C 83 % 1019,2 hPa 0,0 l/m 0 min 0 min 57 W/m 12,9 km/h (3 Bft) 97,87 %
22.05.2020 19:22 19,1 C 17,8 C 17,8 C 83 % 1019,1 hPa 0,0 l/m 0 min 0 min 43 W/m 16,1 km/h (3 Bft) 95,74 %
22.05.2020 19:24 19,0 C 17,8 C 17,8 C 83 % 1019,2 hPa 0,0 l/m 0 min 0 min 46 W/m 12,9 km/h (3 Bft) 96,43 %
22.05.2020 19:26 18,9 C 17,8 C 17,8 C 83 % 1019,2 hPa 0,0 l/m 0 min 0 min 43 W/m 12,9 km/h (3 Bft) 97,87 %
22.05.2020 19:28 18,8 C 17,8 C 17,8 C 82 % 1019,1 hPa 0,0 l/m 0 min 0 min 45 W/m 16,1 km/h (3 Bft) 95,74 %
22.05.2020 19:30 18,8 C 17,8 C 17,8 C 82 % 1019,0 hPa 0,0 l/m 0 min 0 min 53 W/m 6,4 km/h (2 Bft) 97,87 %
22.05.2020 19:32 18,8 C 17,8 C 17,8 C 81 % 1019,1 hPa 0,0 l/m 0 min 0 min 52 W/m 12,9 km/h (3 Bft) 97,87 %
22.05.2020 19:34 18,7 C 17,8 C 17,8 C 81 % 1019,1 hPa 0,0 l/m 0 min 0 min 34 W/m 12,9 km/h (3 Bft) 97,87 %
22.05.2020 19:36 18,7 C 17,8 C 17,8 C 80 % 1019,0 hPa 0,0 l/m 0 min 0 min 26 W/m 16,1 km/h (3 Bft) 95,65 %
22.05.2020 19:38 18,6 C 17,8 C 17,8 C 80 % 1019,1 hPa 0,0 l/m 0 min 0 min 29 W/m 12,9 km/h (3 Bft) 97,87 %
22.05.2020 19:40 18,6 C 17,2 C 17,8 C 80 % 1019,1 hPa 0,0 l/m 0 min 0 min 24 W/m 9,7 km/h (2 Bft) 97,87 %
22.05.2020 19:42 18,6 C 17,2 C 17,2 C 80 % 1019,1 hPa 0,0 l/m 0 min 0 min 25 W/m 6,4 km/h (2 Bft) 100,00 %
22.05.2020 19:44 18,6 C 17,2 C 17,2 C 80 % 1019,1 hPa 0,0 l/m 0 min 0 min 30 W/m 6,4 km/h (2 Bft) 97,87 %
22.05.2020 19:46 18,5 C 17,2 C 17,2 C 80 % 1019,1 hPa 0,0 l/m 0 min 0 min 30 W/m 9,7 km/h (2 Bft) 97,83 %
22.05.2020 19:48 18,4 C 17,2 C 17,2 C 79 % 1019,2 hPa 0,0 l/m 0 min 0 min 22 W/m 22,5 km/h (4 Bft) 95,74 %
22.05.2020 19:50 18,4 C 17,2 C 17,2 C 79 % 1019,2 hPa 0,0 l/m 0 min 0 min 19 W/m 12,9 km/h (3 Bft) 93,62 %
22.05.2020 19:52 18,4 C 17,2 C 17,2 C 79 % 1019,2 hPa 0,0 l/m 0 min 0 min 17 W/m 3,2 km/h (1 Bft) 95,74 %
22.05.2020 19:54 18,4 C 17,2 C 17,2 C 79 % 1019,2 hPa 0,0 l/m 0 min 0 min 18 W/m 12,9 km/h (3 Bft) 97,87 %
22.05.2020 19:56 18,3 C 17,2 C 17,2 C 79 % 1019,3 hPa 0,0 l/m 0 min 0 min 16 W/m 12,9 km/h (3 Bft) 97,87 %
22.05.2020 19:58 18,3 C 17,2 C 17,2 C 78 % 1019,3 hPa 0,0 l/m 0 min 0 min 17 W/m 9,7 km/h (2 Bft) 95,65 %
22.05.2020 20:00 18,3 C 17,2 C 17,2 C 78 % 1019,3 hPa 0,0 l/m 0 min 0 min 21 W/m 6,4 km/h (2 Bft) 93,62 %
22.05.2020 20:02 18,3 C 17,2 C 17,2 C 78 % 1019,3 hPa 0,0 l/m 0 min 0 min 27 W/m 12,9 km/h (3 Bft) 97,87 %
22.05.2020 20:04 18,3 C 17,2 C 17,2 C 78 % 1019,3 hPa 0,0 l/m 0 min 0 min 32 W/m 9,7 km/h (2 Bft) 95,74 %
22.05.2020 20:06 18,3 C 17,2 C 17,2 C 78 % 1019,3 hPa 0,0 l/m 0 min 0 min 36 W/m 12,9 km/h (3 Bft) 95,74 %
22.05.2020 20:08 18,3 C 17,2 C 17,2 C 78 % 1019,4 hPa 0,0 l/m 0 min 0 min 38 W/m 16,1 km/h (3 Bft) 97,87 %
22.05.2020 20:10 18,2 C 17,2 C 17,2 C 78 % 1019,3 hPa 0,0 l/m 0 min 0 min 39 W/m 12,9 km/h (3 Bft) 97,83 %
22.05.2020 20:12 18,2 C 17,2 C 17,2 C 78 % 1019,3 hPa 0,0 l/m 0 min 0 min 38 W/m 19,3 km/h (3 Bft) 97,87 %
22.05.2020 20:14 18,2 C 17,2 C 17,2 C 78 % 1019,4 hPa 0,0 l/m 0 min 0 min 35 W/m 19,3 km/h (3 Bft) 97,87 %
22.05.2020 20:16 18,2 C 17,2 C 17,2 C 78 % 1019,4 hPa 0,0 l/m 0 min 0 min 35 W/m 16,1 km/h (3 Bft) 95,74 %
22.05.2020 20:18 18,2 C 17,2 C 17,2 C 78 % 1019,4 hPa 0,0 l/m 0 min 0 min 33 W/m 12,9 km/h (3 Bft) 95,74 %
22.05.2020 20:20 18,2 C 17,2 C 17,2 C 78 % 1019,5 hPa 0,0 l/m 0 min 0 min 28 W/m 12,9 km/h (3 Bft) 97,87 %
22.05.2020 20:22 18,2 C 17,2 C 17,2 C 78 % 1019,5 hPa 0,0 l/m 0 min 0 min 26 W/m 9,7 km/h (2 Bft) 95,65 %
22.05.2020 20:24 18,2 C 17,2 C 17,2 C 79 % 1019,4 hPa 0,0 l/m 0 min 0 min 26 W/m 6,4 km/h (2 Bft) 95,74 %
22.05.2020 20:26 18,2 C 17,2 C 17,2 C 79 % 1019,4 hPa 0,0 l/m 0 min 0 min 26 W/m 19,3 km/h (3 Bft) 97,87 %
22.05.2020 20:28 18,2 C 17,2 C 17,2 C 79 % 1019,4 hPa 0,0 l/m 0 min 0 min 24 W/m 12,9 km/h (3 Bft) 95,74 %
22.05.2020 20:30 18,2 C 17,2 C 17,2 C 79 % 1019,4 hPa 0,0 l/m 0 min 0 min 22 W/m 19,3 km/h (3 Bft) 97,87 %
22.05.2020 20:32 18,1 C 16,7 C 16,7 C 79 % 1019,4 hPa 0,0 l/m 0 min 0 min 19 W/m 12,9 km/h (3 Bft) 100,00 %
22.05.2020 20:34 18,1 C 16,7 C 16,7 C 79 % 1019,3 hPa 0,0 l/m 0 min 0 min 17 W/m 9,7 km/h (2 Bft) 97,83 %
22.05.2020 20:36 18,1 C 16,7 C 16,7 C 79 % 1019,4 hPa 0,0 l/m 0 min 0 min 16 W/m 12,9 km/h (3 Bft) 97,87 %
22.05.2020 20:38 18,1 C 16,7 C 16,7 C 79 % 1019,4 hPa 0,0 l/m 0 min 0 min 19 W/m 16,1 km/h (3 Bft) 100,00 %
22.05.2020 20:40 18,1 C 16,7 C 16,7 C 80 % 1019,4 hPa 0,0 l/m 0 min 0 min 21 W/m 16,1 km/h (3 Bft) 100,00 %
22.05.2020 20:42 18,1 C 16,7 C 16,7 C 80 % 1019,4 hPa 0,0 l/m 0 min 0 min 20 W/m 12,9 km/h (3 Bft) 100,00 %
22.05.2020 20:44 18,0 C 16,7 C 16,7 C 80 % 1019,4 hPa 0,0 l/m 0 min 0 min 17 W/m 16,1 km/h (3 Bft) 100,00 %
22.05.2020 20:46 18,0 C 16,7 C 16,7 C 80 % 1019,4 hPa 0,0 l/m 0 min 0 min 14 W/m 6,4 km/h (2 Bft) 100,00 %
22.05.2020 20:48 18,0 C 16,7 C 16,7 C 80 % 1019,4 hPa 0,0 l/m 0 min 0 min 12 W/m 16,1 km/h (3 Bft) 100,00 %
22.05.2020 20:50 17,9 C 16,7 C 16,7 C 80 % 1019,4 hPa 0,0 l/m 0 min 0 min 10 W/m 12,9 km/h (3 Bft) 100,00 %
22.05.2020 20:52 17,9 C 16,7 C 16,7 C 81 % 1019,4 hPa 0,0 l/m 0 min 0 min 8 W/m 3,2 km/h (1 Bft) 100,00 %
22.05.2020 20:54 17,9 C 16,7 C 16,7 C 81 % 1019,4 hPa 0,0 l/m 0 min 0 min 7 W/m 16,1 km/h (3 Bft) 100,00 %
22.05.2020 20:56 17,9 C 16,7 C 16,7 C 81 % 1019,4 hPa 0,0 l/m 0 min 0 min 7 W/m 6,4 km/h (2 Bft) 100,00 %
22.05.2020 20:58 17,9 C 16,7 C 16,7 C 81 % 1019,4 hPa 0,0 l/m 0 min 0 min 7 W/m 16,1 km/h (3 Bft) 100,00 %
22.05.2020 21:00 17,9 C 16,7 C 16,7 C 81 % 1019,4 hPa 0,0 l/m 0 min 0 min 7 W/m 19,3 km/h (3 Bft) 100,00 %
22.05.2020 21:02 17,8 C 16,7 C 16,7 C 81 % 1019,4 hPa 0,0 l/m 0 min 0 min 6 W/m 12,9 km/h (3 Bft) 100,00 %
22.05.2020 21:04 17,8 C 16,7 C 16,7 C 81 % 1019,5 hPa 0,0 l/m 0 min 0 min 5 W/m 6,4 km/h (2 Bft) 97,78 %
22.05.2020 21:06 17,8 C 16,7 C 16,7 C 81 % 1019,5 hPa 0,0 l/m 0 min 0 min 2 W/m 12,9 km/h (3 Bft) 100,00 %
22.05.2020 21:08 17,8 C 16,7 C 16,7 C 81 % 1019,5 hPa 0,0 l/m 0 min 0 min 0 W/m 3,2 km/h (1 Bft) 100,00 %
22.05.2020 21:10 17,8 C 16,7 C 16,7 C 81 % 1019,5 hPa 0,0 l/m 0 min 0 min 0 W/m 16,1 km/h (3 Bft) 100,00 %
22.05.2020 21:12 17,8 C 16,7 C 16,7 C 81 % 1019,5 hPa 0,0 l/m 0 min 0 min 0 W/m 12,9 km/h (3 Bft) 100,00 %
22.05.2020 21:14 17,8 C 16,7 C 16,7 C 82 % 1019,5 hPa 0,0 l/m 0 min 0 min 0 W/m 6,4 km/h (2 Bft) 97,87 %
22.05.2020 21:16 17,8 C 16,7 C 16,7 C 82 % 1019,6 hPa 0,0 l/m 0 min 0 min 0 W/m 22,5 km/h (4 Bft) 100,00 %
22.05.2020 21:18 17,8 C 16,7 C 16,7 C 82 % 1019,6 hPa 0,0 l/m 0 min 0 min 0 W/m 16,1 km/h (3 Bft) 100,00 %
22.05.2020 21:20 17,8 C 16,7 C 16,7 C 82 % 1019,6 hPa 0,0 l/m 0 min 0 min 0 W/m 16,1 km/h (3 Bft) 100,00 %
22.05.2020 21:22 17,8 C 16,7 C 16,7 C 82 % 1019,5 hPa 0,0 l/m 0 min 0 min 0 W/m 16,1 km/h (3 Bft) 97,87 %
22.05.2020 21:24 17,8 C 16,7 C 16,7 C 83 % 1019,5 hPa 0,0 l/m 0 min 0 min 0 W/m 16,1 km/h (3 Bft) 97,87 %
22.05.2020 21:26 17,8 C 16,7 C 16,7 C 83 % 1019,6 hPa 0,0 l/m 0 min 0 min 0 W/m 16,1 km/h (3 Bft) 100,00 %
22.05.2020 21:28 17,7 C 16,7 C 16,7 C 83 % 1019,5 hPa 0,0 l/m 0 min 0 min 0 W/m 19,3 km/h (3 Bft) 91,67 %
22.05.2020 21:30 17,7 C 16,7 C 16,1 C 83 % 1019,5 hPa 0,0 l/m 0 min 0 min 0 W/m 16,1 km/h (3 Bft) 97,87 %
22.05.2020 21:32 17,7 C 16,7 C 16,1 C 83 % 1019,5 hPa 0,0 l/m 0 min 0 min 0 W/m 12,9 km/h (3 Bft) 95,74 %
22.05.2020 21:34 17,7 C 16,1 C 16,1 C 83 % 1019,4 hPa 0,0 l/m 0 min 0 min 0 W/m 6,4 km/h (2 Bft) 97,87 %
22.05.2020 21:36 17,7 C 16,1 C 16,1 C 84 % 1019,5 hPa 0,0 l/m 0 min 0 min 0 W/m 12,9 km/h (3 Bft) 95,74 %
22.05.2020 21:38 17,7 C 16,1 C 16,1 C 84 % 1019,5 hPa 0,0 l/m 0 min 0 min 0 W/m 6,4 km/h (2 Bft) 97,83 %
22.05.2020 21:40 17,6 C 16,1 C 16,1 C 84 % 1019,6 hPa 0,0 l/m 0 min 0 min 0 W/m 16,1 km/h (3 Bft) 97,87 %
22.05.2020 21:42 17,6 C 16,1 C 16,1 C 84 % 1019,6 hPa 0,0 l/m 0 min 0 min 0 W/m 12,9 km/h (3 Bft) 95,74 %
22.05.2020 21:44 17,6 C 16,1 C 16,1 C 84 % 1019,6 hPa 0,0 l/m 0 min 0 min 0 W/m 16,1 km/h (3 Bft) 97,87 %
22.05.2020 21:46 17,6 C 16,1 C 16,1 C 84 % 1019,6 hPa 0,0 l/m 0 min 0 min 0 W/m 12,9 km/h (3 Bft) 97,87 %
22.05.2020 21:48 17,5 C 16,1 C 16,1 C 84 % 1019,6 hPa 0,0 l/m 0 min 0 min 0 W/m 6,4 km/h (2 Bft) 97,87 %
22.05.2020 21:50 17,5 C 16,1 C 16,1 C 85 % 1019,6 hPa 0,0 l/m 0 min 0 min 0 W/m 16,1 km/h (3 Bft) 97,83 %
22.05.2020 21:52 17,4 C 16,1 C 16,1 C 85 % 1019,6 hPa 0,0 l/m 0 min 0 min 0 W/m 16,1 km/h (3 Bft) 95,74 %
22.05.2020 21:54 17,4 C 16,1 C 16,1 C 85 % 1019,6 hPa 0,0 l/m 0 min 0 min 0 W/m 16,1 km/h (3 Bft) 97,87 %
22.05.2020 21:56 17,4 C 16,1 C 16,1 C 85 % 1019,7 hPa 0,0 l/m 0 min 0 min 0 W/m 16,1 km/h (3 Bft) 95,74 %
22.05.2020 21:58 17,3 C 16,1 C 16,1 C 85 % 1019,7 hPa 0,0 l/m 0 min 0 min 0 W/m 12,9 km/h (3 Bft) 95,74 %
22.05.2020 22:00 17,3 C 16,1 C 16,1 C 85 % 1019,6 hPa 0,0 l/m 0 min 0 min 0 W/m 6,4 km/h (2 Bft) 97,83 %
22.05.2020 22:02 17,3 C 16,1 C 15,6 C 85 % 1019,6 hPa 0,0 l/m 0 min 0 min 0 W/m 9,7 km/h (2 Bft) 95,74 %
22.05.2020 22:04 17,3 C 16,1 C 15,6 C 85 % 1019,6 hPa 0,0 l/m 0 min 0 min 0 W/m 12,9 km/h (3 Bft) 97,87 %
22.05.2020 22:06 17,2 C 16,1 C 15,6 C 85 % 1019,6 hPa 0,0 l/m 0 min 0 min 0 W/m 12,9 km/h (3 Bft) 95,74 %
22.05.2020 22:08 17,2 C 16,1 C 15,6 C 85 % 1019,7 hPa 0,0 l/m 0 min 0 min 0 W/m 19,3 km/h (3 Bft) 97,87 %
22.05.2020 22:10 17,2 C 15,6 C 15,6 C 85 % 1019,7 hPa 0,0 l/m 0 min 0 min 0 W/m 19,3 km/h (3 Bft) 97,87 %
22.05.2020 22:12 17,2 C 15,6 C 15,6 C 85 % 1019,6 hPa 0,0 l/m 0 min 0 min 0 W/m 19,3 km/h (3 Bft) 95,65 %
22.05.2020 22:14 17,1 C 15,6 C 15,6 C 85 % 1019,6 hPa 0,0 l/m 0 min 0 min 0 W/m 22,5 km/h (4 Bft) 97,87 %
22.05.2020 22:16 17,1 C 15,6 C 15,6 C 85 % 1019,7 hPa 0,0 l/m 0 min 0 min 0 W/m 16,1 km/h (3 Bft) 100,00 %
22.05.2020 22:18 17,1 C 15,6 C 15,6 C 85 % 1019,7 hPa 0,0 l/m 0 min 0 min 0 W/m 6,4 km/h (2 Bft) 97,87 %
22.05.2020 22:20 17,1 C 15,6 C 15,6 C 86 % 1019,7 hPa 0,0 l/m 0 min 0 min 0 W/m 12,9 km/h (3 Bft) 97,87 %
22.05.2020 22:22 17,0 C 15,6 C 15,6 C 86 % 1019,6 hPa 0,0 l/m 0 min 0 min 0 W/m 19,3 km/h (3 Bft) 97,87 %
22.05.2020 22:24 17,0 C 15,6 C 15,6 C 85 % 1019,6 hPa 0,0 l/m 0 min 0 min 0 W/m 6,4 km/h (2 Bft) 97,83 %
22.05.2020 22:26 16,9 C 15,6 C 15,6 C 85 % 1019,6 hPa 0,0 l/m 0 min 0 min 0 W/m 22,5 km/h (4 Bft) 97,87 %
22.05.2020 22:28 16,9 C 15,6 C 15,6 C 85 % 1019,7 hPa 0,0 l/m 0 min 0 min 0 W/m 12,9 km/h (3 Bft) 97,87 %
22.05.2020 22:30 16,9 C 15,6 C 15,6 C 86 % 1019,7 hPa 0,0 l/m 0 min 0 min 0 W/m 16,1 km/h (3 Bft) 97,87 %
22.05.2020 22:32 16,9 C 15,6 C 15,6 C 86 % 1019,7 hPa 0,0 l/m 0 min 0 min 0 W/m 22,5 km/h (4 Bft) 95,74 %
22.05.2020 22:34 16,8 C 15,6 C 15,6 C 86 % 1019,7 hPa 0,0 l/m 0 min 0 min 0 W/m 19,3 km/h (3 Bft) 95,74 %
22.05.2020 22:36 16,8 C 15,6 C 15,6 C 86 % 1019,7 hPa 0,0 l/m 0 min 0 min 0 W/m 19,3 km/h (3 Bft) 95,65 %
22.05.2020 22:38 16,8 C 15,6 C 15,6 C 86 % 1019,8 hPa 0,0 l/m 0 min 0 min 0 W/m 19,3 km/h (3 Bft) 95,74 %
22.05.2020 22:40 16,8 C 15,6 C 15,6 C 86 % 1019,8 hPa 0,0 l/m 0 min 0 min 0 W/m 19,3 km/h (3 Bft) 96,30 %
22.05.2020 22:42 16,8 C 15,6 C 15,6 C 86 % 1019,7 hPa 0,0 l/m 0 min 0 min 0 W/m 19,3 km/h (3 Bft) 93,48 %
22.05.2020 22:44 16,8 C 15,6 C 15,6 C 86 % 1019,7 hPa 0,0 l/m 0 min 0 min 0 W/m 12,9 km/h (3 Bft) 95,74 %
22.05.2020 22:46 16,8 C 15,6 C 15,6 C 86 % 1019,7 hPa 0,0 l/m 0 min 0 min 0 W/m 12,9 km/h (3 Bft) 93,62 %
22.05.2020 22:48 16,7 C 15,6 C 15,6 C 86 % 1019,7 hPa 0,0 l/m 0 min 0 min 0 W/m 16,1 km/h (3 Bft) 95,74 %
22.05.2020 22:50 16,7 C 15,6 C 15,6 C 86 % 1019,7 hPa 0,0 l/m 0 min 0 min 0 W/m 16,1 km/h (3 Bft) 95,74 %
22.05.2020 22:52 16,7 C 15,6 C 15,6 C 86 % 1019,7 hPa 0,0 l/m 0 min 0 min 0 W/m 12,9 km/h (3 Bft) 93,62 %
22.05.2020 22:54 16,7 C 15,6 C 15,6 C 87 % 1019,7 hPa 0,0 l/m 0 min 0 min 0 W/m 16,1 km/h (3 Bft) 95,65 %
22.05.2020 22:56 16,7 C 15,6 C 15,6 C 87 % 1019,7 hPa 0,0 l/m 0 min 0 min 0 W/m 12,9 km/h (3 Bft) 93,62 %
22.05.2020 22:58 16,7 C 15,6 C 15,6 C 87 % 1019,7 hPa 0,0 l/m 0 min 0 min 0 W/m 12,9 km/h (3 Bft) 95,74 %
22.05.2020 23:00 16,7 C 15,6 C 15,6 C 87 % 1019,7 hPa 0,0 l/m 0 min 0 min 0 W/m 16,1 km/h (3 Bft) 95,74 %
22.05.2020 23:02 16,7 C 15,6 C 15,6 C 87 % 1019,8 hPa 0,0 l/m 0 min 0 min 0 W/m 19,3 km/h (3 Bft) 93,75 %
22.05.2020 23:04 16,7 C 15,6 C 15,6 C 87 % 1019,8 hPa 0,0 l/m 0 min 0 min 0 W/m 16,1 km/h (3 Bft) 95,74 %
22.05.2020 23:06 16,7 C 15,6 C 15,6 C 87 % 1019,9 hPa 0,0 l/m 0 min 0 min 0 W/m 19,3 km/h (3 Bft) 95,65 %
22.05.2020 23:08 16,7 C 15,6 C 15,6 C 87 % 1019,9 hPa 0,0 l/m 0 min 0 min 0 W/m 19,3 km/h (3 Bft) 95,74 %
22.05.2020 23:10 16,7 C 15,6 C 15,6 C 87 % 1019,9 hPa 0,0 l/m 0 min 0 min 0 W/m 16,1 km/h (3 Bft) 97,87 %
22.05.2020 23:12 16,7 C 15,6 C 15,6 C 87 % 1019,8 hPa 0,0 l/m 0 min 0 min 0 W/m 12,9 km/h (3 Bft) 95,74 %
22.05.2020 23:14 16,7 C 15,6 C 15,6 C 87 % 1019,9 hPa 0,0 l/m 0 min 0 min 0 W/m 19,3 km/h (3 Bft) 95,74 %
22.05.2020 23:16 16,7 C 15,6 C 15,6 C 87 % 1019,9 hPa 0,0 l/m 0 min 0 min 0 W/m 16,1 km/h (3 Bft) 95,65 %
22.05.2020 23:18 16,7 C 15,6 C 15,6 C 87 % 1019,9 hPa 0,0 l/m 0 min 0 min 0 W/m 12,9 km/h (3 Bft) 95,74 %
22.05.2020 23:20 16,7 C 15,6 C 15,6 C 87 % 1019,9 hPa 0,0 l/m 0 min 0 min 0 W/m 12,9 km/h (3 Bft) 97,87 %
22.05.2020 23:22 16,7 C 15,6 C 15,6 C 87 % 1019,9 hPa 0,0 l/m 0 min 0 min 0 W/m 3,2 km/h (1 Bft) 100,00 %
22.05.2020 23:24 16,7 C 15,6 C 15,6 C 87 % 1019,9 hPa 0,0 l/m 0 min 0 min 0 W/m 9,7 km/h (2 Bft) 97,87 %
22.05.2020 23:26 16,7 C 15,6 C 15,6 C 87 % 1019,8 hPa 0,0 l/m 0 min 0 min 0 W/m 12,9 km/h (3 Bft) 97,87 %
22.05.2020 23:28 16,7 C 15,6 C 15,6 C 87 % 1019,8 hPa 0,0 l/m 0 min 0 min 0 W/m 6,4 km/h (2 Bft) 100,00 %
22.05.2020 23:30 16,7 C 15,6 C 15,6 C 87 % 1019,8 hPa 0,0 l/m 0 min 0 min 0 W/m 12,9 km/h (3 Bft) 100,00 %
22.05.2020 23:32 16,7 C 15,6 C 15,6 C 87 % 1019,9 hPa 0,0 l/m 0 min 0 min 0 W/m 16,1 km/h (3 Bft) 100,00 %
22.05.2020 23:34 16,7 C 15,6 C 15,6 C 87 % 1019,9 hPa 0,0 l/m 0 min 0 min 0 W/m 6,4 km/h (2 Bft) 97,83 %
22.05.2020 23:36 16,7 C 15,6 C 15,6 C 87 % 1019,9 hPa 0,0 l/m 0 min 0 min 0 W/m 6,4 km/h (2 Bft) 100,00 %
22.05.2020 23:38 16,7 C 15,6 C 15,6 C 87 % 1019,8 hPa 0,0 l/m 0 min 0 min 0 W/m 6,4 km/h (2 Bft) 100,00 %
22.05.2020 23:40 16,7 C 15,6 C 15,6 C 87 % 1019,9 hPa 0,0 l/m 0 min 0 min 0 W/m 3,2 km/h (1 Bft) 100,00 %
22.05.2020 23:42 16,7 C 15,6 C 15,6 C 87 % 1019,9 hPa 0,0 l/m 0 min 0 min 0 W/m 12,9 km/h (3 Bft) 97,87 %
22.05.2020 23:44 16,7 C 15,6 C 15,6 C 87 % 1019,9 hPa 0,0 l/m 0 min 0 min 0 W/m 16,1 km/h (3 Bft) 100,00 %
22.05.2020 23:46 16,7 C 15,6 C 15,6 C 88 % 1019,9 hPa 0,0 l/m 0 min 0 min 0 W/m 19,3 km/h (3 Bft) 100,00 %
22.05.2020 23:48 16,7 C 15,6 C 15,6 C 88 % 1020,0 hPa 0,0 l/m 0 min 0 min 0 W/m 9,7 km/h (2 Bft) 97,87 %
22.05.2020 23:50 16,7 C 15,6 C 15,6 C 88 % 1020,0 hPa 0,0 l/m 0 min 0 min 0 W/m 12,9 km/h (3 Bft) 100,00 %
22.05.2020 23:52 16,7 C 15,6 C 15,6 C 88 % 1019,9 hPa 0,0 l/m 0 min 0 min 0 W/m 12,9 km/h (3 Bft) 97,87 %
22.05.2020 23:54 16,7 C 15,6 C 15,6 C 88 % 1019,9 hPa 0,0 l/m 0 min 0 min 0 W/m 6,4 km/h (2 Bft) 100,00 %
22.05.2020 23:56 16,7 C 15,6 C 15,6 C 88 % 1019,9 hPa 0,0 l/m 0 min 0 min 0 W/m 6,4 km/h (2 Bft) 100,00 %
22.05.2020 23:58 16,7 C 15,6 C 15,6 C 88 % 1020,0 hPa 0,0 l/m 0 min 0 min 0 W/m 3,2 km/h (1 Bft) 100,00 %
_ Min-Zeit 02:00 01:30 01:48 16:36 14:08 - - - - 00:00 01:22
Minimum _ 16,1 C 14,4 C 13,3 C 50 % 1016,1 hPa - - - - 0,0 km/h (0 Bft) 89,36 %
_ Max-Zeit 14:34 14:04 14:04 23:46 23:48 00:00 12:08 15:58 14:18 14:14 00:00
Maximum _ 28,2 C 31,1 C 30,6 C 88 % 1020,0 hPa 0,0 l/m 4 min 2 min 773 W/m 41,8 km/h
S (6 Bft)
100,00 %
Durchschnitt _ 20,0 C 19,6 C 18,9 C 76 % 1018,1 hPa #0,0 l/m #2:04 h #1:30 h 203 W/m 12,0 km/h (2 Bft) 97,58 %
© 2020 W. Hausmann